<?xml version="1.0" encoding="UTF-8" standalone="no" ?>
<gpx xmlns="http://www.topografix.com/GPX/1/1" creator="MapSource 6.16.3" version="1.1" xmlns:xsi="http://www.w3.org/2001/XMLSchema-instance" xsi:schemaLocation="http://www.topografix.com/GPX/1/1 http://www.topografix.com/GPX/1/1/gpx.xsd">

  <metadata>
    <link href="http://www.garmin.com">
      <text>Garmin International</text>
    </link>
    <time>2016-09-07T05:27:31Z</time>
    <bounds maxlat="44.393906593322754" maxlon="11.246910095214844" minlat="44.360454082489014" minlon="11.175112724304199"/>
  </metadata>

  <trk>
    <name>ACTIVE LOG</name>
    <trkseg>
      <trkpt lat="44.393842220306396" lon="11.245944499969482">
        <ele>108</ele>
        <time>2004-12-08T08:10:20Z</time>
      </trkpt>
      <trkpt lat="44.393734931945801" lon="11.246480941772461">
        <ele>107</ele>
        <time>2004-12-08T08:10:35Z</time>
      </trkpt>
      <trkpt lat="44.393606185913086" lon="11.246910095214844">
        <ele>107</ele>
        <time>2004-12-08T08:10:45Z</time>
      </trkpt>
      <trkpt lat="44.392940998077393" lon="11.246609687805176">
        <ele>106</ele>
        <time>2004-12-08T08:11:05Z</time>
      </trkpt>
      <trkpt lat="44.391911029815674" lon="11.246137619018555">
        <ele>106</ele>
        <time>2004-12-08T08:11:33Z</time>
      </trkpt>
      <trkpt lat="44.39150333404541" lon="11.245922958478332">
        <ele>106</ele>
        <time>2004-12-08T08:11:43Z</time>
      </trkpt>
      <trkpt lat="44.391331672668457" lon="11.245901584625244">
        <ele>106</ele>
        <time>2004-12-08T08:11:47Z</time>
      </trkpt>
      <trkpt lat="44.391224384307861" lon="11.245858669281006">
        <ele>106</ele>
        <time>2004-12-08T08:11:50Z</time>
      </trkpt>
      <trkpt lat="44.390966892242432" lon="11.245644092559814">
        <ele>106</ele>
        <time>2004-12-08T08:11:57Z</time>
      </trkpt>
      <trkpt lat="44.390087127685547" lon="11.245279312133789">
        <ele>105</ele>
        <time>2004-12-08T08:12:18Z</time>
      </trkpt>
      <trkpt lat="44.389443397521973" lon="11.244935989379883">
        <ele>107</ele>
        <time>2004-12-08T08:12:36Z</time>
      </trkpt>
      <trkpt lat="44.388971328735352" lon="11.244356632232666">
        <ele>110</ele>
        <time>2004-12-08T08:12:54Z</time>
      </trkpt>
      <trkpt lat="44.388027191162109" lon="11.243197917938232">
        <ele>110</ele>
        <time>2004-12-08T08:13:26Z</time>
      </trkpt>
      <trkpt lat="44.387662410736084" lon="11.242682933807373">
        <ele>111</ele>
        <time>2004-12-08T08:13:38Z</time>
      </trkpt>
      <trkpt lat="44.387619495391846" lon="11.242554187774658">
        <ele>111</ele>
        <time>2004-12-08T08:13:41Z</time>
      </trkpt>
      <trkpt lat="44.387469291687012" lon="11.241352558135986">
        <ele>108</ele>
        <time>2004-12-08T08:14:00Z</time>
      </trkpt>
      <trkpt lat="44.387362003326416" lon="11.24051570892334">
        <ele>107</ele>
        <time>2004-12-08T08:14:12Z</time>
      </trkpt>
      <trkpt lat="44.386804103851318" lon="11.239163875579834">
        <ele>105</ele>
        <time>2004-12-08T08:14:33Z</time>
      </trkpt>
      <trkpt lat="44.386246204376221" lon="11.238284111022949">
        <ele>106</ele>
        <time>2004-12-08T08:14:53Z</time>
      </trkpt>
      <trkpt lat="44.385945796966553" lon="11.237855041399598">
        <ele>107</ele>
        <time>2004-12-08T08:15:08Z</time>
      </trkpt>
      <trkpt lat="44.385967338457704" lon="11.237726211547852">
        <ele>107</ele>
        <time>2004-12-08T08:15:14Z</time>
      </trkpt>
      <trkpt lat="44.385988712310791" lon="11.237382888793945">
        <ele>109</ele>
        <time>2004-12-08T08:15:27Z</time>
      </trkpt>
      <trkpt lat="44.385666763409972" lon="11.236932277679443">
        <ele>111</ele>
        <time>2004-12-08T08:15:48Z</time>
      </trkpt>
      <trkpt lat="44.385559558868408" lon="11.236546039581299">
        <ele>113</ele>
        <time>2004-12-08T08:16:04Z</time>
      </trkpt>
      <trkpt lat="44.385581016540527" lon="11.236181259155273">
        <ele>116</ele>
        <time>2004-12-08T08:16:18Z</time>
      </trkpt>
      <trkpt lat="44.385623931884766" lon="11.235687732696533">
        <ele>118</ele>
        <time>2004-12-08T08:16:36Z</time>
      </trkpt>
      <trkpt lat="44.3857741355896" lon="11.235387325286865">
        <ele>121</ele>
        <time>2004-12-08T08:16:51Z</time>
      </trkpt>
      <trkpt lat="44.385902881622314" lon="11.235129833221436">
        <ele>124</ele>
        <time>2004-12-08T08:17:04Z</time>
      </trkpt>
      <trkpt lat="44.386117458343506" lon="11.234700679779053">
        <ele>126</ele>
        <time>2004-12-08T08:17:26Z</time>
      </trkpt>
      <trkpt lat="44.38622466288507" lon="11.23427152633667">
        <ele>129</ele>
        <time>2004-12-08T08:17:45Z</time>
      </trkpt>
      <trkpt lat="44.386289119720459" lon="11.233885288238525">
        <ele>132</ele>
        <time>2004-12-08T08:18:02Z</time>
      </trkpt>
      <trkpt lat="44.386375034227967" lon="11.233391761779785">
        <ele>135</ele>
        <time>2004-12-08T08:18:26Z</time>
      </trkpt>
      <trkpt lat="44.386439323425293" lon="11.233112812042236">
        <ele>138</ele>
        <time>2004-12-08T08:18:39Z</time>
      </trkpt>
      <trkpt lat="44.386482238769531" lon="11.232790863141418">
        <ele>140</ele>
        <time>2004-12-08T08:18:54Z</time>
      </trkpt>
      <trkpt lat="44.386375034227967" lon="11.232705116271973">
        <ele>140</ele>
        <time>2004-12-08T08:19:01Z</time>
      </trkpt>
      <trkpt lat="44.386074459180236" lon="11.232469081878662">
        <ele>140</ele>
        <time>2004-12-08T08:19:17Z</time>
      </trkpt>
      <trkpt lat="44.38581713475287" lon="11.232318878173828">
        <ele>140</ele>
        <time>2004-12-08T08:19:28Z</time>
      </trkpt>
      <trkpt lat="44.385430812835693" lon="11.23201847076416">
        <ele>139</ele>
        <time>2004-12-08T08:19:44Z</time>
      </trkpt>
      <trkpt lat="44.384958660230041" lon="11.231653690338135">
        <ele>140</ele>
        <time>2004-12-08T08:20:04Z</time>
      </trkpt>
      <trkpt lat="44.384550964459777" lon="11.231353282928467">
        <ele>140</ele>
        <time>2004-12-08T08:20:22Z</time>
      </trkpt>
      <trkpt lat="44.384036064147949" lon="11.230988502502441">
        <ele>141</ele>
        <time>2004-12-08T08:20:46Z</time>
      </trkpt>
      <trkpt lat="44.383628368377686" lon="11.230688095092773">
        <ele>142</ele>
        <time>2004-12-08T08:21:05Z</time>
      </trkpt>
      <trkpt lat="44.383370876312256" lon="11.230580806732178">
        <ele>142</ele>
        <time>2004-12-08T08:21:17Z</time>
      </trkpt>
      <trkpt lat="44.383220672607422" lon="11.230237483978271">
        <ele>144</ele>
        <time>2004-12-08T08:21:32Z</time>
      </trkpt>
      <trkpt lat="44.38326358795166" lon="11.229872703552246">
        <ele>146</ele>
        <time>2004-12-08T08:21:48Z</time>
      </trkpt>
      <trkpt lat="44.383413791656494" lon="11.229636669158936">
        <ele>150</ele>
        <time>2004-12-08T08:22:02Z</time>
      </trkpt>
      <trkpt lat="44.383585536852479" lon="11.229357719421387">
        <ele>153</ele>
        <time>2004-12-08T08:22:18Z</time>
      </trkpt>
      <trkpt lat="44.383735740557313" lon="11.229143058881164">
        <ele>156</ele>
        <time>2004-12-08T08:22:30Z</time>
      </trkpt>
      <trkpt lat="44.383606910705566" lon="11.228756904602051">
        <ele>156</ele>
        <time>2004-12-08T08:22:44Z</time>
      </trkpt>
      <trkpt lat="44.383370876312256" lon="11.228134632110596">
        <ele>154</ele>
        <time>2004-12-08T08:22:59Z</time>
      </trkpt>
      <trkpt lat="44.382920265197754" lon="11.227469360455871">
        <ele>154</ele>
        <time>2004-12-08T08:23:14Z</time>
      </trkpt>
      <trkpt lat="44.382405281066895" lon="11.226804340258241">
        <ele>156</ele>
        <time>2004-12-08T08:23:35Z</time>
      </trkpt>
      <trkpt lat="44.381825923919678" lon="11.226053237915039">
        <ele>157</ele>
        <time>2004-12-08T08:24:00Z</time>
      </trkpt>
      <trkpt lat="44.381353938952088" lon="11.225495338439941">
        <ele>156</ele>
        <time>2004-12-08T08:24:18Z</time>
      </trkpt>
      <trkpt lat="44.38126802444458" lon="11.225409507751465">
        <ele>156</ele>
        <time>2004-12-08T08:24:21Z</time>
      </trkpt>
      <trkpt lat="44.381053363904357" lon="11.225152015686035">
        <ele>155</ele>
        <time>2004-12-08T08:24:27Z</time>
      </trkpt>
      <trkpt lat="44.380860328674316" lon="11.224701404571533">
        <ele>153</ele>
        <time>2004-12-08T08:24:35Z</time>
      </trkpt>
      <trkpt lat="44.380924701690674" lon="11.224250793457031">
        <ele>152</ele>
        <time>2004-12-08T08:24:41Z</time>
      </trkpt>
      <trkpt lat="44.381074905395508" lon="11.223735809326172">
        <ele>148</ele>
        <time>2004-12-08T08:24:48Z</time>
      </trkpt>
      <trkpt lat="44.381139278411865" lon="11.22352123260498">
        <ele>146</ele>
        <time>2004-12-08T08:24:51Z</time>
      </trkpt>
      <trkpt lat="44.381310939788818" lon="11.223392486572266">
        <ele>143</ele>
        <time>2004-12-08T08:24:56Z</time>
      </trkpt>
      <trkpt lat="44.381332397460938" lon="11.223349571228027">
        <ele>143</ele>
        <time>2004-12-08T08:24:58Z</time>
      </trkpt>
      <trkpt lat="44.381203735247254" lon="11.223113536834717">
        <ele>143</ele>
        <time>2004-12-08T08:25:07Z</time>
      </trkpt>
      <trkpt lat="44.380838871002197" lon="11.223177909851074">
        <ele>147</ele>
        <time>2004-12-08T08:25:22Z</time>
      </trkpt>
      <trkpt lat="44.380495464429259" lon="11.223564064130187">
        <ele>149</ele>
        <time>2004-12-08T08:25:42Z</time>
      </trkpt>
      <trkpt lat="44.380173683166504" lon="11.223864639177918">
        <ele>152</ele>
        <time>2004-12-08T08:25:58Z</time>
      </trkpt>
      <trkpt lat="44.379937564954162" lon="11.223886013031006">
        <ele>154</ele>
        <time>2004-12-08T08:26:11Z</time>
      </trkpt>
      <trkpt lat="44.379615783691406" lon="11.223671436309814">
        <ele>157</ele>
        <time>2004-12-08T08:26:27Z</time>
      </trkpt>
      <trkpt lat="44.379165172576904" lon="11.223092079162598">
        <ele>158</ele>
        <time>2004-12-08T08:26:51Z</time>
      </trkpt>
      <trkpt lat="44.378757476806641" lon="11.222620010375977">
        <ele>159</ele>
        <time>2004-12-08T08:27:13Z</time>
      </trkpt>
      <trkpt lat="44.3785644415766" lon="11.222169399261475">
        <ele>159</ele>
        <time>2004-12-08T08:27:28Z</time>
      </trkpt>
      <trkpt lat="44.3785644415766" lon="11.221997737884521">
        <ele>159</ele>
        <time>2004-12-08T08:27:32Z</time>
      </trkpt>
      <trkpt lat="44.378478527069092" lon="11.221868991851807">
        <ele>159</ele>
        <time>2004-12-08T08:27:37Z</time>
      </trkpt>
      <trkpt lat="44.378070831298828" lon="11.221633041277528">
        <ele>161</ele>
        <time>2004-12-08T08:27:55Z</time>
      </trkpt>
      <trkpt lat="44.377856338396668" lon="11.221482837572694">
        <ele>164</ele>
        <time>2004-12-08T08:28:06Z</time>
      </trkpt>
      <trkpt lat="44.377405559644103" lon="11.221246719360352">
        <ele>166</ele>
        <time>2004-12-08T08:28:26Z</time>
      </trkpt>
      <trkpt lat="44.377233982086182" lon="11.220903396606445">
        <ele>168</ele>
        <time>2004-12-08T08:28:40Z</time>
      </trkpt>
      <trkpt lat="44.377105236053467" lon="11.220581531524658">
        <ele>171</ele>
        <time>2004-12-08T08:28:52Z</time>
      </trkpt>
      <trkpt lat="44.376718997955322" lon="11.220238208770752">
        <ele>174</ele>
        <time>2004-12-08T08:29:14Z</time>
      </trkpt>
      <trkpt lat="44.376439964398742" lon="11.219959259033203">
        <ele>174</ele>
        <time>2004-12-08T08:29:30Z</time>
      </trkpt>
      <trkpt lat="44.376053810119629" lon="11.219658935442567">
        <ele>176</ele>
        <time>2004-12-08T08:29:51Z</time>
      </trkpt>
      <trkpt lat="44.375796318054199" lon="11.219444274902344">
        <ele>179</ele>
        <time>2004-12-08T08:30:07Z</time>
      </trkpt>
      <trkpt lat="44.375603199005127" lon="11.219272613525391">
        <ele>182</ele>
        <time>2004-12-08T08:30:20Z</time>
      </trkpt>
      <trkpt lat="44.375367164611816" lon="11.219079494476318">
        <ele>185</ele>
        <time>2004-12-08T08:30:37Z</time>
      </trkpt>
      <trkpt lat="44.375238418579102" lon="11.219015121459961">
        <ele>188</ele>
        <time>2004-12-08T08:30:45Z</time>
      </trkpt>
      <trkpt lat="44.374959468841553" lon="11.218950664624572">
        <ele>191</ele>
        <time>2004-12-08T08:31:00Z</time>
      </trkpt>
      <trkpt lat="44.374830722808838" lon="11.218886375427246">
        <ele>194</ele>
        <time>2004-12-08T08:31:09Z</time>
      </trkpt>
      <trkpt lat="44.374594688415527" lon="11.218864917755127">
        <ele>197</ele>
        <time>2004-12-08T08:31:23Z</time>
      </trkpt>
      <trkpt lat="44.374315738677979" lon="11.21877908706665">
        <ele>200</ele>
        <time>2004-12-08T08:31:39Z</time>
      </trkpt>
      <trkpt lat="44.37403678894043" lon="11.218628883361816">
        <ele>204</ele>
        <time>2004-12-08T08:31:58Z</time>
      </trkpt>
      <trkpt lat="44.373907959088683" lon="11.218349933624268">
        <ele>207</ele>
        <time>2004-12-08T08:32:13Z</time>
      </trkpt>
      <trkpt lat="44.373865127563477" lon="11.21824256144464">
        <ele>210</ele>
        <time>2004-12-08T08:32:20Z</time>
      </trkpt>
      <trkpt lat="44.373822212219238" lon="11.218156814575195">
        <ele>212</ele>
        <time>2004-12-08T08:32:25Z</time>
      </trkpt>
      <trkpt lat="44.373800838366151" lon="11.217899322509766">
        <ele>215</ele>
        <time>2004-12-08T08:32:38Z</time>
      </trkpt>
      <trkpt lat="44.373843669891357" lon="11.217491626739502">
        <ele>218</ele>
        <time>2004-12-08T08:32:59Z</time>
      </trkpt>
      <trkpt lat="44.373929500579834" lon="11.217191219329834">
        <ele>221</ele>
        <time>2004-12-08T08:33:17Z</time>
      </trkpt>
      <trkpt lat="44.373972415924072" lon="11.217019641771913">
        <ele>224</ele>
        <time>2004-12-08T08:33:27Z</time>
      </trkpt>
      <trkpt lat="44.373993873596191" lon="11.216998100280762">
        <ele>225</ele>
        <time>2004-12-08T08:33:28Z</time>
      </trkpt>
      <trkpt lat="44.374251365661621" lon="11.216697692871094">
        <ele>227</ele>
        <time>2004-12-08T08:33:56Z</time>
      </trkpt>
      <trkpt lat="44.37427282333374" lon="11.21654748916626">
        <ele>229</ele>
        <time>2004-12-08T08:34:04Z</time>
      </trkpt>
      <trkpt lat="44.374315738677979" lon="11.216375827789307">
        <ele>231</ele>
        <time>2004-12-08T08:34:11Z</time>
      </trkpt>
      <trkpt lat="44.374294281005859" lon="11.216332912445068">
        <ele>231</ele>
        <time>2004-12-08T08:34:28Z</time>
      </trkpt>
      <trkpt lat="44.374208534136415" lon="11.216311538591981">
        <ele>227</ele>
        <time>2004-12-08T08:35:03Z</time>
      </trkpt>
      <trkpt lat="44.374208534136415" lon="11.21628999710083">
        <ele>221</ele>
        <time>2004-12-08T08:35:04Z</time>
      </trkpt>
      <trkpt lat="44.374208534136415" lon="11.21628999710083">
        <ele>231</ele>
        <time>2004-12-08T08:35:05Z</time>
      </trkpt>
      <trkpt lat="44.374208534136415" lon="11.21628999710083">
        <ele>230</ele>
        <time>2004-12-08T08:35:06Z</time>
      </trkpt>
      <trkpt lat="44.374122619628906" lon="11.216311538591981">
        <ele>230</ele>
        <time>2004-12-08T08:35:37Z</time>
      </trkpt>
      <trkpt lat="44.374122619628906" lon="11.216247081756592">
        <ele>230</ele>
        <time>2004-12-08T08:36:07Z</time>
      </trkpt>
      <trkpt lat="44.374251365661621" lon="11.216225624084473">
        <ele>231</ele>
        <time>2004-12-08T08:37:18Z</time>
      </trkpt>
      <trkpt lat="44.374315738677979" lon="11.21628999710083">
        <ele>231</ele>
        <time>2004-12-08T08:37:23Z</time>
      </trkpt>
      <trkpt lat="44.374337196350098" lon="11.216311538591981">
        <ele>231</ele>
        <time>2004-12-08T08:37:34Z</time>
      </trkpt>
      <trkpt lat="44.374337196350098" lon="11.216311538591981">
        <ele>233</ele>
        <time>2004-12-08T08:38:39Z</time>
      </trkpt>
      <trkpt lat="44.374358737841249" lon="11.216375827789307">
        <ele>235</ele>
        <time>2004-12-08T08:38:42Z</time>
      </trkpt>
      <trkpt lat="44.374401569366455" lon="11.216483116149902">
        <ele>238</ele>
        <time>2004-12-08T08:38:50Z</time>
      </trkpt>
      <trkpt lat="44.374401569366455" lon="11.216504573822021">
        <ele>238</ele>
        <time>2004-12-08T08:38:51Z</time>
      </trkpt>
      <trkpt lat="44.374423027038574" lon="11.216633319854736">
        <ele>240</ele>
        <time>2004-12-08T08:38:57Z</time>
      </trkpt>
      <trkpt lat="44.374315738677979" lon="11.216998100280762">
        <ele>243</ele>
        <time>2004-12-08T08:39:15Z</time>
      </trkpt>
      <trkpt lat="44.374294281005859" lon="11.217148303985596">
        <ele>244</ele>
        <time>2004-12-08T08:39:22Z</time>
      </trkpt>
      <trkpt lat="44.374358737841249" lon="11.217362880706787">
        <ele>248</ele>
        <time>2004-12-08T08:39:32Z</time>
      </trkpt>
      <trkpt lat="44.374380111694336" lon="11.217405796051025">
        <ele>250</ele>
        <time>2004-12-08T08:39:35Z</time>
      </trkpt>
      <trkpt lat="44.374487400054932" lon="11.217641830444336">
        <ele>253</ele>
        <time>2004-12-08T08:39:51Z</time>
      </trkpt>
      <trkpt lat="44.3747878074646" lon="11.217770576477051">
        <ele>252</ele>
        <time>2004-12-08T08:40:11Z</time>
      </trkpt>
      <trkpt lat="44.375431537628174" lon="11.217963695526123">
        <ele>252</ele>
        <time>2004-12-08T08:40:46Z</time>
      </trkpt>
      <trkpt lat="44.375753402709961" lon="11.217920780181885">
        <ele>256</ele>
        <time>2004-12-08T08:41:16Z</time>
      </trkpt>
      <trkpt lat="44.375967979431152" lon="11.217877864837646">
        <ele>259</ele>
        <time>2004-12-08T08:41:44Z</time>
      </trkpt>
      <trkpt lat="44.37626838684082" lon="11.216976558789611">
        <ele>261</ele>
        <time>2004-12-08T08:41:51Z</time>
      </trkpt>
      <trkpt lat="44.376418590545654" lon="11.217041015625">
        <ele>263</ele>
        <time>2004-12-08T08:42:02Z</time>
      </trkpt>
      <trkpt lat="44.376654624938965" lon="11.217405796051025">
        <ele>266</ele>
        <time>2004-12-08T08:42:28Z</time>
      </trkpt>
      <trkpt lat="44.376761913299561" lon="11.21757754124701">
        <ele>268</ele>
        <time>2004-12-08T08:42:44Z</time>
      </trkpt>
      <trkpt lat="44.376847660169005" lon="11.217641830444336">
        <ele>272</ele>
        <time>2004-12-08T08:42:52Z</time>
      </trkpt>
      <trkpt lat="44.377040863037109" lon="11.217598915100098">
        <ele>274</ele>
        <time>2004-12-08T08:43:12Z</time>
      </trkpt>
      <trkpt lat="44.37753438949585" lon="11.217169761657715">
        <ele>277</ele>
        <time>2004-12-08T08:43:58Z</time>
      </trkpt>
      <trkpt lat="44.377706134691834" lon="11.216826438903809">
        <ele>280</ele>
        <time>2004-12-08T08:44:22Z</time>
      </trkpt>
      <trkpt lat="44.37777042388916" lon="11.216633319854736">
        <ele>283</ele>
        <time>2004-12-08T08:44:34Z</time>
      </trkpt>
      <trkpt lat="44.37777042388916" lon="11.216526031494141">
        <ele>284</ele>
        <time>2004-12-08T08:44:39Z</time>
      </trkpt>
      <trkpt lat="44.377727508544922" lon="11.216075420379639">
        <ele>287</ele>
        <time>2004-12-08T08:45:02Z</time>
      </trkpt>
      <trkpt lat="44.377684593200684" lon="11.215775012969971">
        <ele>290</ele>
        <time>2004-12-08T08:45:20Z</time>
      </trkpt>
      <trkpt lat="44.377706134691834" lon="11.215603435412049">
        <ele>292</ele>
        <time>2004-12-08T08:45:30Z</time>
      </trkpt>
      <trkpt lat="44.377899169921875" lon="11.215431690216064">
        <ele>295</ele>
        <time>2004-12-08T08:45:47Z</time>
      </trkpt>
      <trkpt lat="44.377920627593994" lon="11.215431690216064">
        <ele>296</ele>
        <time>2004-12-08T08:45:50Z</time>
      </trkpt>
      <trkpt lat="44.378070831298828" lon="11.215410232543945">
        <ele>299</ele>
        <time>2004-12-08T08:46:02Z</time>
      </trkpt>
      <trkpt lat="44.37828540802002" lon="11.215496063232422">
        <ele>300</ele>
        <time>2004-12-08T08:46:30Z</time>
      </trkpt>
      <trkpt lat="44.378371238708496" lon="11.215753639116883">
        <ele>300</ele>
        <time>2004-12-08T08:49:07Z</time>
      </trkpt>
      <trkpt lat="44.378499984741211" lon="11.215903759002686">
        <ele>301</ele>
        <time>2004-12-08T08:49:30Z</time>
      </trkpt>
      <trkpt lat="44.378628730773926" lon="11.215946674346924">
        <ele>303</ele>
        <time>2004-12-08T08:49:47Z</time>
      </trkpt>
      <trkpt lat="44.378650188446045" lon="11.215946674346924">
        <ele>304</ele>
        <time>2004-12-08T08:49:49Z</time>
      </trkpt>
      <trkpt lat="44.378736019134521" lon="11.215903759002686">
        <ele>306</ele>
        <time>2004-12-08T08:49:58Z</time>
      </trkpt>
      <trkpt lat="44.378929138183594" lon="11.215839385986328">
        <ele>309</ele>
        <time>2004-12-08T08:50:18Z</time>
      </trkpt>
      <trkpt lat="44.379057884216309" lon="11.215775012969971">
        <ele>312</ele>
        <time>2004-12-08T08:50:32Z</time>
      </trkpt>
      <trkpt lat="44.379208087921143" lon="11.215624809265137">
        <ele>315</ele>
        <time>2004-12-08T08:50:49Z</time>
      </trkpt>
      <trkpt lat="44.379208087921143" lon="11.215624809265137">
        <ele>316</ele>
        <time>2004-12-08T08:50:50Z</time>
      </trkpt>
      <trkpt lat="44.37922946177423" lon="11.215581893920898">
        <ele>317</ele>
        <time>2004-12-08T08:50:53Z</time>
      </trkpt>
      <trkpt lat="44.379208087921143" lon="11.21553897857666">
        <ele>318</ele>
        <time>2004-12-08T08:50:56Z</time>
      </trkpt>
      <trkpt lat="44.379186630249023" lon="11.215474605560303">
        <ele>319</ele>
        <time>2004-12-08T08:51:00Z</time>
      </trkpt>
      <trkpt lat="44.378993511199951" lon="11.215260028839111">
        <ele>323</ele>
        <time>2004-12-08T08:51:15Z</time>
      </trkpt>
      <trkpt lat="44.378843307495117" lon="11.215109825134277">
        <ele>325</ele>
        <time>2004-12-08T08:51:32Z</time>
      </trkpt>
      <trkpt lat="44.378671562299132" lon="11.214916706085205">
        <ele>327</ele>
        <time>2004-12-08T08:51:50Z</time>
      </trkpt>
      <trkpt lat="44.378671562299132" lon="11.214895164594054">
        <ele>326</ele>
        <time>2004-12-08T08:51:51Z</time>
      </trkpt>
      <trkpt lat="44.378607273101807" lon="11.214766502380371">
        <ele>327</ele>
        <time>2004-12-08T08:52:00Z</time>
      </trkpt>
      <trkpt lat="44.378435611724854" lon="11.21455192565918">
        <ele>329</ele>
        <time>2004-12-08T08:52:21Z</time>
      </trkpt>
      <trkpt lat="44.378242492675781" lon="11.214315891265869">
        <ele>332</ele>
        <time>2004-12-08T08:52:42Z</time>
      </trkpt>
      <trkpt lat="44.378221035003662" lon="11.214230060577393">
        <ele>332</ele>
        <time>2004-12-08T08:52:46Z</time>
      </trkpt>
      <trkpt lat="44.378199577331543" lon="11.213929736986756">
        <ele>335</ele>
        <time>2004-12-08T08:53:05Z</time>
      </trkpt>
      <trkpt lat="44.378392696380615" lon="11.213629161939025">
        <ele>337</ele>
        <time>2004-12-08T08:53:27Z</time>
      </trkpt>
      <trkpt lat="44.378628730773926" lon="11.213221466168761">
        <ele>339</ele>
        <time>2004-12-08T08:53:49Z</time>
      </trkpt>
      <trkpt lat="44.378843307495117" lon="11.21279239654541">
        <ele>339</ele>
        <time>2004-12-08T08:54:10Z</time>
      </trkpt>
      <trkpt lat="44.379079341888428" lon="11.212427616119385">
        <ele>342</ele>
        <time>2004-12-08T08:54:28Z</time>
      </trkpt>
      <trkpt lat="44.379122341051698" lon="11.211977005004883">
        <ele>345</ele>
        <time>2004-12-08T08:54:48Z</time>
      </trkpt>
      <trkpt lat="44.379122341051698" lon="11.211419105529785">
        <ele>348</ele>
        <time>2004-12-08T08:55:12Z</time>
      </trkpt>
      <trkpt lat="44.379143714904785" lon="11.210947036743164">
        <ele>351</ele>
        <time>2004-12-08T08:55:32Z</time>
      </trkpt>
      <trkpt lat="44.379143714904785" lon="11.210625171661377">
        <ele>352</ele>
        <time>2004-12-08T08:55:48Z</time>
      </trkpt>
      <trkpt lat="44.378864765167236" lon="11.210496425628662">
        <ele>351</ele>
        <time>2004-12-08T08:56:07Z</time>
      </trkpt>
      <trkpt lat="44.378585815429688" lon="11.210238933563232">
        <ele>351</ele>
        <time>2004-12-08T08:56:20Z</time>
      </trkpt>
      <trkpt lat="44.378457069396973" lon="11.210153102874756">
        <ele>351</ele>
        <time>2004-12-08T08:56:28Z</time>
      </trkpt>
      <trkpt lat="44.378457069396973" lon="11.210067272186279">
        <ele>352</ele>
        <time>2004-12-08T08:56:32Z</time>
      </trkpt>
      <trkpt lat="44.378521358594298" lon="11.209573661908507">
        <ele>353</ele>
        <time>2004-12-08T08:56:54Z</time>
      </trkpt>
      <trkpt lat="44.378607273101807" lon="11.208994388580322">
        <ele>355</ele>
        <time>2004-12-08T08:57:22Z</time>
      </trkpt>
      <trkpt lat="44.378714561462402" lon="11.208608234301209">
        <ele>357</ele>
        <time>2004-12-08T08:57:43Z</time>
      </trkpt>
      <trkpt lat="44.378821766003966" lon="11.208243370056152">
        <ele>360</ele>
        <time>2004-12-08T08:58:05Z</time>
      </trkpt>
      <trkpt lat="44.378929138183594" lon="11.20774975977838">
        <ele>363</ele>
        <time>2004-12-08T08:58:29Z</time>
      </trkpt>
      <trkpt lat="44.378972137346864" lon="11.207513809204102">
        <ele>364</ele>
        <time>2004-12-08T08:58:43Z</time>
      </trkpt>
      <trkpt lat="44.378993511199951" lon="11.207406520843506">
        <ele>365</ele>
        <time>2004-12-08T08:58:48Z</time>
      </trkpt>
      <trkpt lat="44.379036426544189" lon="11.206998825073242">
        <ele>366</ele>
        <time>2004-12-08T08:59:10Z</time>
      </trkpt>
      <trkpt lat="44.379057884216309" lon="11.206698417663574">
        <ele>368</ele>
        <time>2004-12-08T08:59:26Z</time>
      </trkpt>
      <trkpt lat="44.379036426544189" lon="11.206526840105653">
        <ele>370</ele>
        <time>2004-12-08T08:59:38Z</time>
      </trkpt>
      <trkpt lat="44.37901496887207" lon="11.206419467926025">
        <ele>372</ele>
        <time>2004-12-08T08:59:44Z</time>
      </trkpt>
      <trkpt lat="44.37922946177423" lon="11.206011772155762">
        <ele>375</ele>
        <time>2004-12-08T09:00:10Z</time>
      </trkpt>
      <trkpt lat="44.379379665479064" lon="11.205775737762451">
        <ele>375</ele>
        <time>2004-12-08T09:00:25Z</time>
      </trkpt>
      <trkpt lat="44.379465579986572" lon="11.205668365582824">
        <ele>375</ele>
        <time>2004-12-08T09:00:55Z</time>
      </trkpt>
      <trkpt lat="44.379465579986572" lon="11.205646991729736">
        <ele>379</ele>
        <time>2004-12-08T09:01:35Z</time>
      </trkpt>
      <trkpt lat="44.379701614379883" lon="11.205411041155457">
        <ele>381</ele>
        <time>2004-12-08T09:01:56Z</time>
      </trkpt>
      <trkpt lat="44.379701614379883" lon="11.205282211303711">
        <ele>383</ele>
        <time>2004-12-08T09:02:13Z</time>
      </trkpt>
      <trkpt lat="44.379358291625977" lon="11.205174922943115">
        <ele>387</ele>
        <time>2004-12-08T09:02:37Z</time>
      </trkpt>
      <trkpt lat="44.3792724609375" lon="11.205174922943115">
        <ele>387</ele>
        <time>2004-12-08T09:02:41Z</time>
      </trkpt>
      <trkpt lat="44.379079341888428" lon="11.205153465270996">
        <ele>389</ele>
        <time>2004-12-08T09:02:58Z</time>
      </trkpt>
      <trkpt lat="44.379036426544189" lon="11.205174922943115">
        <ele>390</ele>
        <time>2004-12-08T09:03:05Z</time>
      </trkpt>
      <trkpt lat="44.378950595855713" lon="11.205367958173156">
        <ele>393</ele>
        <time>2004-12-08T09:03:22Z</time>
      </trkpt>
      <trkpt lat="44.378886222839355" lon="11.205453872680664">
        <ele>395</ele>
        <time>2004-12-08T09:03:32Z</time>
      </trkpt>
      <trkpt lat="44.378843307495117" lon="11.205432415008545">
        <ele>396</ele>
        <time>2004-12-08T09:03:38Z</time>
      </trkpt>
      <trkpt lat="44.378800392150879" lon="11.205153465270996">
        <ele>399</ele>
        <time>2004-12-08T09:03:56Z</time>
      </trkpt>
      <trkpt lat="44.378800392150879" lon="11.20506763458252">
        <ele>400</ele>
        <time>2004-12-08T09:04:02Z</time>
      </trkpt>
      <trkpt lat="44.378821766003966" lon="11.20485314168036">
        <ele>403</ele>
        <time>2004-12-08T09:04:19Z</time>
      </trkpt>
      <trkpt lat="44.378821766003966" lon="11.204831600189209">
        <ele>403</ele>
        <time>2004-12-08T09:04:20Z</time>
      </trkpt>
      <trkpt lat="44.378757476806641" lon="11.204638481140137">
        <ele>405</ele>
        <time>2004-12-08T09:04:37Z</time>
      </trkpt>
      <trkpt lat="44.378693103790283" lon="11.204509735107422">
        <ele>408</ele>
        <time>2004-12-08T09:04:49Z</time>
      </trkpt>
      <trkpt lat="44.378671562299132" lon="11.204445362091064">
        <ele>409</ele>
        <time>2004-12-08T09:04:55Z</time>
      </trkpt>
      <trkpt lat="44.378693103790283" lon="11.204230785369873">
        <ele>412</ele>
        <time>2004-12-08T09:05:12Z</time>
      </trkpt>
      <trkpt lat="44.378714561462402" lon="11.20405912399292">
        <ele>415</ele>
        <time>2004-12-08T09:05:25Z</time>
      </trkpt>
      <trkpt lat="44.378714561462402" lon="11.203780174255371">
        <ele>419</ele>
        <time>2004-12-08T09:05:48Z</time>
      </trkpt>
      <trkpt lat="44.378714561462402" lon="11.203758716583252">
        <ele>419</ele>
        <time>2004-12-08T09:05:49Z</time>
      </trkpt>
      <trkpt lat="44.378671562299132" lon="11.203651428222656">
        <ele>421</ele>
        <time>2004-12-08T09:05:59Z</time>
      </trkpt>
      <trkpt lat="44.378478527069092" lon="11.203501224517822">
        <ele>425</ele>
        <time>2004-12-08T09:06:20Z</time>
      </trkpt>
      <trkpt lat="44.378371238708496" lon="11.203372478485107">
        <ele>427</ele>
        <time>2004-12-08T09:06:32Z</time>
      </trkpt>
      <trkpt lat="44.378264034166932" lon="11.203243732452393">
        <ele>430</ele>
        <time>2004-12-08T09:06:45Z</time>
      </trkpt>
      <trkpt lat="44.378178119659424" lon="11.202943325042725">
        <ele>434</ele>
        <time>2004-12-08T09:07:03Z</time>
      </trkpt>
      <trkpt lat="44.378135204315186" lon="11.202750205993652">
        <ele>437</ele>
        <time>2004-12-08T09:07:14Z</time>
      </trkpt>
      <trkpt lat="44.378092288970947" lon="11.202664375305176">
        <ele>438</ele>
        <time>2004-12-08T09:07:21Z</time>
      </trkpt>
      <trkpt lat="44.378049373626709" lon="11.202621459960938">
        <ele>438</ele>
        <time>2004-12-08T09:07:25Z</time>
      </trkpt>
      <trkpt lat="44.377834796905518" lon="11.202707290649414">
        <ele>441</ele>
        <time>2004-12-08T09:07:41Z</time>
      </trkpt>
      <trkpt lat="44.377620220184326" lon="11.202750205993652">
        <ele>443</ele>
        <time>2004-12-08T09:07:59Z</time>
      </trkpt>
      <trkpt lat="44.377577304840088" lon="11.202664375305176">
        <ele>444</ele>
        <time>2004-12-08T09:08:06Z</time>
      </trkpt>
      <trkpt lat="44.377598762512207" lon="11.202664375305176">
        <ele>444</ele>
        <time>2004-12-08T09:08:08Z</time>
      </trkpt>
      <trkpt lat="44.377663135528564" lon="11.202642917633057">
        <ele>445</ele>
        <time>2004-12-08T09:08:14Z</time>
      </trkpt>
      <trkpt lat="44.377791881561279" lon="11.202514171600342">
        <ele>448</ele>
        <time>2004-12-08T09:08:27Z</time>
      </trkpt>
      <trkpt lat="44.378006458282471" lon="11.202278137207031">
        <ele>451</ele>
        <time>2004-12-08T09:08:50Z</time>
      </trkpt>
      <trkpt lat="44.378199577331543" lon="11.20206356048584">
        <ele>455</ele>
        <time>2004-12-08T09:09:11Z</time>
      </trkpt>
      <trkpt lat="44.378371238708496" lon="11.20206356048584">
        <ele>456</ele>
        <time>2004-12-08T09:09:25Z</time>
      </trkpt>
      <trkpt lat="44.3785644415766" lon="11.202321136370301">
        <ele>460</ele>
        <time>2004-12-08T09:09:46Z</time>
      </trkpt>
      <trkpt lat="44.378800392150879" lon="11.202385425567627">
        <ele>463</ele>
        <time>2004-12-08T09:10:04Z</time>
      </trkpt>
      <trkpt lat="44.378929138183594" lon="11.202363967895508">
        <ele>466</ele>
        <time>2004-12-08T09:10:14Z</time>
      </trkpt>
      <trkpt lat="44.378993511199951" lon="11.202256679534912">
        <ele>468</ele>
        <time>2004-12-08T09:10:25Z</time>
      </trkpt>
      <trkpt lat="44.379143714904785" lon="11.20202056132257">
        <ele>472</ele>
        <time>2004-12-08T09:10:42Z</time>
      </trkpt>
      <trkpt lat="44.379251003265381" lon="11.201913440600038">
        <ele>475</ele>
        <time>2004-12-08T09:10:52Z</time>
      </trkpt>
      <trkpt lat="44.379251003265381" lon="11.201891899108887">
        <ele>475</ele>
        <time>2004-12-08T09:10:53Z</time>
      </trkpt>
      <trkpt lat="44.379336833953857" lon="11.201741695404053">
        <ele>478</ele>
        <time>2004-12-08T09:11:09Z</time>
      </trkpt>
      <trkpt lat="44.379465579986572" lon="11.201484203338623">
        <ele>482</ele>
        <time>2004-12-08T09:11:32Z</time>
      </trkpt>
      <trkpt lat="44.379701614379883" lon="11.201054966077209">
        <ele>489</ele>
        <time>2004-12-08T09:12:03Z</time>
      </trkpt>
      <trkpt lat="44.379830360412598" lon="11.200776100158691">
        <ele>492</ele>
        <time>2004-12-08T09:12:17Z</time>
      </trkpt>
      <trkpt lat="44.379894733428955" lon="11.200582981109619">
        <ele>495</ele>
        <time>2004-12-08T09:12:40Z</time>
      </trkpt>
      <trkpt lat="44.380087936297059" lon="11.200454235076904">
        <ele>499</ele>
        <time>2004-12-08T09:12:56Z</time>
      </trkpt>
      <trkpt lat="44.380109310150146" lon="11.200454235076904">
        <ele>499</ele>
        <time>2004-12-08T09:12:58Z</time>
      </trkpt>
      <trkpt lat="44.380366802215576" lon="11.200132369995117">
        <ele>503</ele>
        <time>2004-12-08T09:13:21Z</time>
      </trkpt>
      <trkpt lat="44.380495464429259" lon="11.199939334765077">
        <ele>506</ele>
        <time>2004-12-08T09:13:35Z</time>
      </trkpt>
      <trkpt lat="44.380624294281006" lon="11.199896335601807">
        <ele>509</ele>
        <time>2004-12-08T09:13:51Z</time>
      </trkpt>
      <trkpt lat="44.380667209625244" lon="11.199853420257568">
        <ele>511</ele>
        <time>2004-12-08T09:13:56Z</time>
      </trkpt>
      <trkpt lat="44.380796039476991" lon="11.199746131896973">
        <ele>514</ele>
        <time>2004-12-08T09:14:05Z</time>
      </trkpt>
      <trkpt lat="44.380838871002197" lon="11.199681758880615">
        <ele>516</ele>
        <time>2004-12-08T09:14:09Z</time>
      </trkpt>
      <trkpt lat="44.380946159362793" lon="11.19957447052002">
        <ele>519</ele>
        <time>2004-12-08T09:14:17Z</time>
      </trkpt>
      <trkpt lat="44.38103199005127" lon="11.199488639831543">
        <ele>521</ele>
        <time>2004-12-08T09:14:24Z</time>
      </trkpt>
      <trkpt lat="44.381117820739746" lon="11.199402809143066">
        <ele>524</ele>
        <time>2004-12-08T09:14:31Z</time>
      </trkpt>
      <trkpt lat="44.381117820739746" lon="11.199402809143066">
        <ele>525</ele>
        <time>2004-12-08T09:14:32Z</time>
      </trkpt>
      <trkpt lat="44.381160736083984" lon="11.19931697845459">
        <ele>524</ele>
        <time>2004-12-08T09:19:54Z</time>
      </trkpt>
      <trkpt lat="44.381160736083984" lon="11.199252605438232">
        <ele>525</ele>
        <time>2004-12-08T09:21:26Z</time>
      </trkpt>
      <trkpt lat="44.381117820739746" lon="11.199274063110352">
        <ele>525</ele>
        <time>2004-12-08T09:24:12Z</time>
      </trkpt>
      <trkpt lat="44.380924701690674" lon="11.19931697845459">
        <ele>528</ele>
        <time>2004-12-08T09:24:25Z</time>
      </trkpt>
      <trkpt lat="44.380881786346436" lon="11.199295520782471">
        <ele>529</ele>
        <time>2004-12-08T09:24:30Z</time>
      </trkpt>
      <trkpt lat="44.380688667297363" lon="11.199295520782471">
        <ele>532</ele>
        <time>2004-12-08T09:24:45Z</time>
      </trkpt>
      <trkpt lat="44.380452632904053" lon="11.199274063110352">
        <ele>536</ele>
        <time>2004-12-08T09:25:06Z</time>
      </trkpt>
      <trkpt lat="44.38025951385498" lon="11.199295520782471">
        <ele>539</ele>
        <time>2004-12-08T09:25:25Z</time>
      </trkpt>
      <trkpt lat="44.380238140001893" lon="11.199295520782471">
        <ele>539</ele>
        <time>2004-12-08T09:25:28Z</time>
      </trkpt>
      <trkpt lat="44.380152225494385" lon="11.19931697845459">
        <ele>539</ele>
        <time>2004-12-08T09:25:35Z</time>
      </trkpt>
      <trkpt lat="44.379937564954162" lon="11.199295520782471">
        <ele>541</ele>
        <time>2004-12-08T09:25:57Z</time>
      </trkpt>
      <trkpt lat="44.379658699035645" lon="11.199209690093994">
        <ele>540</ele>
        <time>2004-12-08T09:26:17Z</time>
      </trkpt>
      <trkpt lat="44.379508495330811" lon="11.198995113372803">
        <ele>543</ele>
        <time>2004-12-08T09:26:32Z</time>
      </trkpt>
      <trkpt lat="44.379379665479064" lon="11.198844909667969">
        <ele>546</ele>
        <time>2004-12-08T09:26:46Z</time>
      </trkpt>
      <trkpt lat="44.379208087921143" lon="11.198694705963135">
        <ele>549</ele>
        <time>2004-12-08T09:27:06Z</time>
      </trkpt>
      <trkpt lat="44.379100799560547" lon="11.198651790618896">
        <ele>551</ele>
        <time>2004-12-08T09:27:17Z</time>
      </trkpt>
      <trkpt lat="44.378929138183594" lon="11.198694705963135">
        <ele>554</ele>
        <time>2004-12-08T09:27:35Z</time>
      </trkpt>
      <trkpt lat="44.378714561462402" lon="11.198759078979492">
        <ele>556</ele>
        <time>2004-12-08T09:27:55Z</time>
      </trkpt>
      <trkpt lat="44.378650188446045" lon="11.198780536651611">
        <ele>557</ele>
        <time>2004-12-08T09:28:02Z</time>
      </trkpt>
      <trkpt lat="44.378650188446045" lon="11.198737621307373">
        <ele>558</ele>
        <time>2004-12-08T09:28:06Z</time>
      </trkpt>
      <trkpt lat="44.378693103790283" lon="11.198501586914063">
        <ele>562</ele>
        <time>2004-12-08T09:28:24Z</time>
      </trkpt>
      <trkpt lat="44.378736019134521" lon="11.198458671569824">
        <ele>562</ele>
        <time>2004-12-08T09:28:29Z</time>
      </trkpt>
      <trkpt lat="44.378886222839355" lon="11.198351383209229">
        <ele>564</ele>
        <time>2004-12-08T09:28:49Z</time>
      </trkpt>
      <trkpt lat="44.379079341888428" lon="11.198222637176514">
        <ele>564</ele>
        <time>2004-12-08T09:29:06Z</time>
      </trkpt>
      <trkpt lat="44.379336833953857" lon="11.198158264160156">
        <ele>568</ele>
        <time>2004-12-08T09:29:29Z</time>
      </trkpt>
      <trkpt lat="44.379594326019287" lon="11.198179721832275">
        <ele>568</ele>
        <time>2004-12-08T09:29:55Z</time>
      </trkpt>
      <trkpt lat="44.379615783691406" lon="11.198179721832275">
        <ele>567</ele>
        <time>2004-12-08T09:29:57Z</time>
      </trkpt>
      <trkpt lat="44.379637241363525" lon="11.198158264160156">
        <ele>568</ele>
        <time>2004-12-08T09:30:00Z</time>
      </trkpt>
      <trkpt lat="44.379637241363525" lon="11.198050975799561">
        <ele>569</ele>
        <time>2004-12-08T09:30:07Z</time>
      </trkpt>
      <trkpt lat="44.379572868347168" lon="11.197729110717773">
        <ele>573</ele>
        <time>2004-12-08T09:30:30Z</time>
      </trkpt>
      <trkpt lat="44.379551410675049" lon="11.197621822357178">
        <ele>575</ele>
        <time>2004-12-08T09:30:39Z</time>
      </trkpt>
      <trkpt lat="44.379530036821961" lon="11.197385787963867">
        <ele>579</ele>
        <time>2004-12-08T09:30:50Z</time>
      </trkpt>
      <trkpt lat="44.379530036821961" lon="11.197342872619629">
        <ele>580</ele>
        <time>2004-12-08T09:30:52Z</time>
      </trkpt>
      <trkpt lat="44.379508495330811" lon="11.197192668914795">
        <ele>582</ele>
        <time>2004-12-08T09:30:58Z</time>
      </trkpt>
      <trkpt lat="44.379487037658691" lon="11.197106838226318">
        <ele>584</ele>
        <time>2004-12-08T09:31:12Z</time>
      </trkpt>
      <trkpt lat="44.379465579986572" lon="11.197042465209961">
        <ele>587</ele>
        <time>2004-12-08T09:31:31Z</time>
      </trkpt>
      <trkpt lat="44.379358291625977" lon="11.196892261505127">
        <ele>590</ele>
        <time>2004-12-08T09:31:54Z</time>
      </trkpt>
      <trkpt lat="44.379358291625977" lon="11.196892261505127">
        <ele>590</ele>
        <time>2004-12-08T09:31:55Z</time>
      </trkpt>
      <trkpt lat="44.3792724609375" lon="11.196935176849365">
        <ele>593</ele>
        <time>2004-12-08T09:32:03Z</time>
      </trkpt>
      <trkpt lat="44.37922946177423" lon="11.196999466046691">
        <ele>596</ele>
        <time>2004-12-08T09:32:13Z</time>
      </trkpt>
      <trkpt lat="44.379165172576904" lon="11.19706392288208">
        <ele>598</ele>
        <time>2004-12-08T09:32:29Z</time>
      </trkpt>
      <trkpt lat="44.379143714904785" lon="11.197042465209961">
        <ele>598</ele>
        <time>2004-12-08T09:32:55Z</time>
      </trkpt>
      <trkpt lat="44.379122341051698" lon="11.197021007537842">
        <ele>599</ele>
        <time>2004-12-08T09:33:33Z</time>
      </trkpt>
      <trkpt lat="44.379143714904785" lon="11.196978092193604">
        <ele>598</ele>
        <time>2004-12-08T09:34:13Z</time>
      </trkpt>
      <trkpt lat="44.379100799560547" lon="11.196956634521484">
        <ele>598</ele>
        <time>2004-12-08T09:34:16Z</time>
      </trkpt>
      <trkpt lat="44.378950595855713" lon="11.196870803833008">
        <ele>600</ele>
        <time>2004-12-08T09:34:29Z</time>
      </trkpt>
      <trkpt lat="44.378736019134521" lon="11.196656227111816">
        <ele>602</ele>
        <time>2004-12-08T09:34:49Z</time>
      </trkpt>
      <trkpt lat="44.378693103790283" lon="11.196420192718506">
        <ele>606</ele>
        <time>2004-12-08T09:35:07Z</time>
      </trkpt>
      <trkpt lat="44.378607273101807" lon="11.196269989013672">
        <ele>609</ele>
        <time>2004-12-08T09:35:17Z</time>
      </trkpt>
      <trkpt lat="44.378607273101807" lon="11.196248531341553">
        <ele>609</ele>
        <time>2004-12-08T09:35:18Z</time>
      </trkpt>
      <trkpt lat="44.378499984741211" lon="11.1960768699646">
        <ele>612</ele>
        <time>2004-12-08T09:35:34Z</time>
      </trkpt>
      <trkpt lat="44.378392696380615" lon="11.195905208587646">
        <ele>613</ele>
        <time>2004-12-08T09:35:51Z</time>
      </trkpt>
      <trkpt lat="44.378371238708496" lon="11.195776462554932">
        <ele>613</ele>
        <time>2004-12-08T09:36:00Z</time>
      </trkpt>
      <trkpt lat="44.378264034166932" lon="11.195261478424072">
        <ele>609</ele>
        <time>2004-12-08T09:36:21Z</time>
      </trkpt>
      <trkpt lat="44.378264034166932" lon="11.195218563079834">
        <ele>609</ele>
        <time>2004-12-08T09:36:23Z</time>
      </trkpt>
      <trkpt lat="44.378178119659424" lon="11.194982528686523">
        <ele>605</ele>
        <time>2004-12-08T09:36:31Z</time>
      </trkpt>
      <trkpt lat="44.378156661987305" lon="11.194918239489198">
        <ele>604</ele>
        <time>2004-12-08T09:36:33Z</time>
      </trkpt>
      <trkpt lat="44.377899169921875" lon="11.194210136309266">
        <ele>600</ele>
        <time>2004-12-08T09:36:57Z</time>
      </trkpt>
      <trkpt lat="44.377856338396668" lon="11.194145679473877">
        <ele>600</ele>
        <time>2004-12-08T09:36:59Z</time>
      </trkpt>
      <trkpt lat="44.377791881561279" lon="11.194059764966369">
        <ele>596</ele>
        <time>2004-12-08T09:37:02Z</time>
      </trkpt>
      <trkpt lat="44.377620220184326" lon="11.19382381439209">
        <ele>593</ele>
        <time>2004-12-08T09:37:09Z</time>
      </trkpt>
      <trkpt lat="44.377577304840088" lon="11.193737983703613">
        <ele>592</ele>
        <time>2004-12-08T09:37:11Z</time>
      </trkpt>
      <trkpt lat="44.377555763348937" lon="11.193695068359375">
        <ele>591</ele>
        <time>2004-12-08T09:37:12Z</time>
      </trkpt>
      <trkpt lat="44.377319812774658" lon="11.193115711212158">
        <ele>589</ele>
        <time>2004-12-08T09:37:25Z</time>
      </trkpt>
      <trkpt lat="44.377298438921571" lon="11.19307279586792">
        <ele>591</ele>
        <time>2004-12-08T09:37:27Z</time>
      </trkpt>
      <trkpt lat="44.377105236053467" lon="11.192750930786133">
        <ele>592</ele>
        <time>2004-12-08T09:37:46Z</time>
      </trkpt>
      <trkpt lat="44.377083778381348" lon="11.192665100097656">
        <ele>592</ele>
        <time>2004-12-08T09:38:08Z</time>
      </trkpt>
      <trkpt lat="44.377126693725586" lon="11.192214488983154">
        <ele>593</ele>
        <time>2004-12-08T09:48:33Z</time>
      </trkpt>
      <trkpt lat="44.377169609069824" lon="11.191699504852295">
        <ele>594</ele>
        <time>2004-12-08T09:48:59Z</time>
      </trkpt>
      <trkpt lat="44.377148235216737" lon="11.191420638933778">
        <ele>597</ele>
        <time>2004-12-08T09:49:10Z</time>
      </trkpt>
      <trkpt lat="44.377148235216737" lon="11.191270435228944">
        <ele>598</ele>
        <time>2004-12-08T09:49:19Z</time>
      </trkpt>
      <trkpt lat="44.377255439758301" lon="11.191055774688721">
        <ele>600</ele>
        <time>2004-12-08T09:49:38Z</time>
      </trkpt>
      <trkpt lat="44.377298438921571" lon="11.191055774688721">
        <ele>600</ele>
        <time>2004-12-08T09:49:43Z</time>
      </trkpt>
      <trkpt lat="44.377341270446777" lon="11.191034317016602">
        <ele>601</ele>
        <time>2004-12-08T09:49:47Z</time>
      </trkpt>
      <trkpt lat="44.377341270446777" lon="11.191034317016602">
        <ele>601</ele>
        <time>2004-12-08T09:49:48Z</time>
      </trkpt>
      <trkpt lat="44.377598762512207" lon="11.19107723236084">
        <ele>605</ele>
        <time>2004-12-08T09:50:04Z</time>
      </trkpt>
      <trkpt lat="44.377877712249756" lon="11.190969860181212">
        <ele>607</ele>
        <time>2004-12-08T09:50:25Z</time>
      </trkpt>
      <trkpt lat="44.378092288970947" lon="11.190841197967529">
        <ele>610</ele>
        <time>2004-12-08T09:50:45Z</time>
      </trkpt>
      <trkpt lat="44.378242492675781" lon="11.190733909606934">
        <ele>612</ele>
        <time>2004-12-08T09:50:58Z</time>
      </trkpt>
      <trkpt lat="44.378414237871766" lon="11.190454959869385">
        <ele>613</ele>
        <time>2004-12-08T09:51:16Z</time>
      </trkpt>
      <trkpt lat="44.378478527069092" lon="11.190090179443359">
        <ele>616</ele>
        <time>2004-12-08T09:51:34Z</time>
      </trkpt>
      <trkpt lat="44.378628730773926" lon="11.189768314361572">
        <ele>618</ele>
        <time>2004-12-08T09:51:55Z</time>
      </trkpt>
      <trkpt lat="44.378671562299132" lon="11.189703941345215">
        <ele>618</ele>
        <time>2004-12-08T09:51:59Z</time>
      </trkpt>
      <trkpt lat="44.378714561462402" lon="11.189661026000977">
        <ele>618</ele>
        <time>2004-12-08T09:52:03Z</time>
      </trkpt>
      <trkpt lat="44.378843307495117" lon="11.189210414886475">
        <ele>617</ele>
        <time>2004-12-08T09:52:24Z</time>
      </trkpt>
      <trkpt lat="44.378929138183594" lon="11.188781261444092">
        <ele>615</ele>
        <time>2004-12-08T09:52:41Z</time>
      </trkpt>
      <trkpt lat="44.379079341888428" lon="11.188437938690186">
        <ele>618</ele>
        <time>2004-12-08T09:52:56Z</time>
      </trkpt>
      <trkpt lat="44.37922946177423" lon="11.188223361968994">
        <ele>622</ele>
        <time>2004-12-08T09:53:06Z</time>
      </trkpt>
      <trkpt lat="44.379251003265381" lon="11.188201904296875">
        <ele>622</ele>
        <time>2004-12-08T09:53:07Z</time>
      </trkpt>
      <trkpt lat="44.379465579986572" lon="11.188309192657471">
        <ele>624</ele>
        <time>2004-12-08T09:53:23Z</time>
      </trkpt>
      <trkpt lat="44.379701614379883" lon="11.188373565673828">
        <ele>626</ele>
        <time>2004-12-08T09:53:38Z</time>
      </trkpt>
      <trkpt lat="44.37976598739624" lon="11.188416481018066">
        <ele>628</ele>
        <time>2004-12-08T09:53:44Z</time>
      </trkpt>
      <trkpt lat="44.379808902740479" lon="11.188480937853456">
        <ele>630</ele>
        <time>2004-12-08T09:53:48Z</time>
      </trkpt>
      <trkpt lat="44.379916191101074" lon="11.188502311706543">
        <ele>632</ele>
        <time>2004-12-08T09:53:56Z</time>
      </trkpt>
      <trkpt lat="44.380087936297059" lon="11.188588058575988">
        <ele>633</ele>
        <time>2004-12-08T09:54:11Z</time>
      </trkpt>
      <trkpt lat="44.380109310150146" lon="11.188523769378662">
        <ele>634</ele>
        <time>2004-12-08T09:54:28Z</time>
      </trkpt>
      <trkpt lat="44.380087936297059" lon="11.188459396362305">
        <ele>636</ele>
        <time>2004-12-08T09:54:36Z</time>
      </trkpt>
      <trkpt lat="44.379959106445313" lon="11.188287734985352">
        <ele>637</ele>
        <time>2004-12-08T09:54:53Z</time>
      </trkpt>
      <trkpt lat="44.379894733428955" lon="11.188223361968994">
        <ele>637</ele>
        <time>2004-12-08T09:55:02Z</time>
      </trkpt>
      <trkpt lat="44.379787361249328" lon="11.188051700592041">
        <ele>639</ele>
        <time>2004-12-08T09:55:23Z</time>
      </trkpt>
      <trkpt lat="44.379723072052002" lon="11.187987327575684">
        <ele>639</ele>
        <time>2004-12-08T09:55:39Z</time>
      </trkpt>
      <trkpt lat="44.379637241363525" lon="11.187923038378358">
        <ele>639</ele>
        <time>2004-12-08T09:55:54Z</time>
      </trkpt>
      <trkpt lat="44.379572868347168" lon="11.187665462493896">
        <ele>636</ele>
        <time>2003-09-28T08:15:23Z</time>
      </trkpt>
      <trkpt lat="44.379594326019287" lon="11.187558174133301">
        <ele>635</ele>
        <time>2003-09-28T08:16:37Z</time>
      </trkpt>
      <trkpt lat="44.379680240526795" lon="11.187300682067871">
        <ele>635</ele>
        <time>2003-09-28T08:16:53Z</time>
      </trkpt>
      <trkpt lat="44.379744529724121" lon="11.186485290527344">
        <ele>635</ele>
        <time>2003-09-28T08:17:09Z</time>
      </trkpt>
      <trkpt lat="44.379787361249328" lon="11.1857985612005">
        <ele>636</ele>
        <time>2003-09-28T08:17:23Z</time>
      </trkpt>
      <trkpt lat="44.379744529724121" lon="11.185111999511719">
        <ele>636</ele>
        <time>2003-09-28T08:17:34Z</time>
      </trkpt>
      <trkpt lat="44.379916191101074" lon="11.184210777282715">
        <ele>636</ele>
        <time>2003-09-28T08:17:49Z</time>
      </trkpt>
      <trkpt lat="44.379916191101074" lon="11.184060573577881">
        <ele>637</ele>
        <time>2003-09-28T08:17:52Z</time>
      </trkpt>
      <trkpt lat="44.379959106445313" lon="11.183910369873047">
        <ele>637</ele>
        <time>2003-09-28T08:17:56Z</time>
      </trkpt>
      <trkpt lat="44.380087936297059" lon="11.183416759595275">
        <ele>635</ele>
        <time>2003-09-28T08:18:06Z</time>
      </trkpt>
      <trkpt lat="44.380388259887695" lon="11.182665824890137">
        <ele>637</ele>
        <time>2003-09-28T08:18:23Z</time>
      </trkpt>
      <trkpt lat="44.38077449798584" lon="11.182258129119873">
        <ele>639</ele>
        <time>2003-09-28T08:18:41Z</time>
      </trkpt>
      <trkpt lat="44.380710124969482" lon="11.181700229644775">
        <ele>641</ele>
        <time>2003-09-28T08:18:57Z</time>
      </trkpt>
      <trkpt lat="44.380624294281006" lon="11.181335365399718">
        <ele>644</ele>
        <time>2003-09-28T08:19:08Z</time>
      </trkpt>
      <trkpt lat="44.380409717559814" lon="11.180884838104248">
        <ele>647</ele>
        <time>2003-09-28T08:19:25Z</time>
      </trkpt>
      <trkpt lat="44.380345260724425" lon="11.180713176727295">
        <ele>649</ele>
        <time>2003-09-28T08:19:32Z</time>
      </trkpt>
      <trkpt lat="44.380173683166504" lon="11.180391311645508">
        <ele>652</ele>
        <time>2003-09-28T08:19:48Z</time>
      </trkpt>
      <trkpt lat="44.380109310150146" lon="11.180026531219482">
        <ele>654</ele>
        <time>2003-09-28T08:20:08Z</time>
      </trkpt>
      <trkpt lat="44.380044937133789" lon="11.179769039154053">
        <ele>657</ele>
        <time>2003-09-28T08:20:20Z</time>
      </trkpt>
      <trkpt lat="44.379916191101074" lon="11.179254138842225">
        <ele>656</ele>
        <time>2003-09-28T08:20:36Z</time>
      </trkpt>
      <trkpt lat="44.379873275756836" lon="11.178996562957764">
        <ele>654</ele>
        <time>2003-09-28T08:20:39Z</time>
      </trkpt>
      <trkpt lat="44.379830360412598" lon="11.178245460614562">
        <ele>652</ele>
        <time>2003-09-28T08:20:44Z</time>
      </trkpt>
      <trkpt lat="44.379830360412598" lon="11.178224086761475">
        <ele>652</ele>
        <time>2003-09-28T08:20:48Z</time>
      </trkpt>
      <trkpt lat="44.379808902740479" lon="11.177923679351807">
        <ele>649</ele>
        <time>2003-09-28T08:20:53Z</time>
      </trkpt>
      <trkpt lat="44.379980564117432" lon="11.177494525909424">
        <ele>646</ele>
        <time>2003-09-28T08:21:02Z</time>
      </trkpt>
      <trkpt lat="44.380044937133789" lon="11.176915168762207">
        <ele>642</ele>
        <time>2003-09-28T08:21:09Z</time>
      </trkpt>
      <trkpt lat="44.38002347946167" lon="11.176743507385254">
        <ele>638</ele>
        <time>2003-09-28T08:21:12Z</time>
      </trkpt>
      <trkpt lat="44.379980564117432" lon="11.176528930664063">
        <ele>635</ele>
        <time>2003-09-28T08:21:15Z</time>
      </trkpt>
      <trkpt lat="44.379959106445313" lon="11.17633581161499">
        <ele>634</ele>
        <time>2003-09-28T08:21:17Z</time>
      </trkpt>
      <trkpt lat="44.379937564954162" lon="11.176249980926514">
        <ele>634</ele>
        <time>2003-09-28T08:21:23Z</time>
      </trkpt>
      <trkpt lat="44.379658699035645" lon="11.175155639648438">
        <ele>632</ele>
        <time>2003-09-28T08:21:42Z</time>
      </trkpt>
      <trkpt lat="44.379658699035645" lon="11.175155639648438">
        <ele>635</ele>
        <time>2003-09-28T08:25:32Z</time>
      </trkpt>
      <trkpt lat="44.379658699035645" lon="11.175155639648438">
        <ele>633</ele>
        <time>2003-09-28T08:26:11Z</time>
      </trkpt>
      <trkpt lat="44.379658699035645" lon="11.175155639648438">
        <ele>634</ele>
        <time>2003-09-28T08:27:49Z</time>
      </trkpt>
      <trkpt lat="44.379658699035645" lon="11.175155639648438">
        <ele>635</ele>
        <time>2003-09-28T08:28:15Z</time>
      </trkpt>
      <trkpt lat="44.379658699035645" lon="11.175155639648438">
        <ele>635</ele>
        <time>2003-09-28T08:28:49Z</time>
      </trkpt>
      <trkpt lat="44.379615783691406" lon="11.175112724304199">
        <ele>635</ele>
        <time>2003-09-28T08:28:52Z</time>
      </trkpt>
      <trkpt lat="44.379143714904785" lon="11.175241470336914">
        <ele>632</ele>
        <time>2003-09-28T08:29:13Z</time>
      </trkpt>
      <trkpt lat="44.378843307495117" lon="11.17530575953424">
        <ele>628</ele>
        <time>2003-09-28T08:29:17Z</time>
      </trkpt>
      <trkpt lat="44.378736019134521" lon="11.175327301025391">
        <ele>627</ele>
        <time>2003-09-28T08:29:19Z</time>
      </trkpt>
      <trkpt lat="44.378585815429688" lon="11.175407432019711">
        <ele>627</ele>
        <time>1989-12-31T00:00:00Z</time>
      </trkpt>
      <trkpt lat="44.378391271457076" lon="11.175816468894482">
        <ele>627</ele>
        <time>1989-12-31T00:00:00Z</time>
      </trkpt>
      <trkpt lat="44.378322623670101" lon="11.176457433030009">
        <ele>627</ele>
        <time>1989-12-31T00:00:00Z</time>
      </trkpt>
      <trkpt lat="44.3780860863626" lon="11.176787428557873">
        <ele>627</ele>
        <time>1989-12-31T00:00:00Z</time>
      </trkpt>
      <trkpt lat="44.378047864884138" lon="11.177440630272031">
        <ele>627</ele>
        <time>1989-12-31T00:00:00Z</time>
      </trkpt>
      <trkpt lat="44.377899169921875" lon="11.177726704627275">
        <ele>627</ele>
        <time>1989-12-31T00:00:00Z</time>
      </trkpt>
      <trkpt lat="44.37735753133893" lon="11.178147308528423">
        <ele>627</ele>
        <time>1989-12-31T00:00:00Z</time>
      </trkpt>
      <trkpt lat="44.37727689743042" lon="11.17813833989203">
        <ele>591</ele>
        <time>2003-09-28T08:33:10Z</time>
      </trkpt>
      <trkpt lat="44.377169609069824" lon="11.17809534072876">
        <ele>588</ele>
        <time>2003-09-28T08:33:13Z</time>
      </trkpt>
      <trkpt lat="44.376976490020752" lon="11.178052425384521">
        <ele>584</ele>
        <time>2003-09-28T08:33:17Z</time>
      </trkpt>
      <trkpt lat="44.376847660169005" lon="11.178030967712402">
        <ele>580</ele>
        <time>2003-09-28T08:33:20Z</time>
      </trkpt>
      <trkpt lat="44.376718997955322" lon="11.177988136187196">
        <ele>577</ele>
        <time>2003-09-28T08:33:23Z</time>
      </trkpt>
      <trkpt lat="44.376504421234131" lon="11.178052425384521">
        <ele>574</ele>
        <time>2003-09-28T08:33:29Z</time>
      </trkpt>
      <trkpt lat="44.376397132873535" lon="11.178159713745117">
        <ele>572</ele>
        <time>2003-09-28T08:33:33Z</time>
      </trkpt>
      <trkpt lat="44.376289760693908" lon="11.178395664319396">
        <ele>568</ele>
        <time>2003-09-28T08:33:39Z</time>
      </trkpt>
      <trkpt lat="44.376129163429141" lon="11.179130589589477">
        <ele>568</ele>
        <time>1989-12-31T00:00:00Z</time>
      </trkpt>
      <trkpt lat="44.375499682500958" lon="11.179136289283633">
        <ele>568</ele>
        <time>1989-12-31T00:00:00Z</time>
      </trkpt>
      <trkpt lat="44.375335732474923" lon="11.179367965087295">
        <ele>568</ele>
        <time>1989-12-31T00:00:00Z</time>
      </trkpt>
      <trkpt lat="44.375225091353059" lon="11.179542476311326">
        <ele>568</ele>
        <time>1989-12-31T00:00:00Z</time>
      </trkpt>
      <trkpt lat="44.374664258211851" lon="11.179714221507311">
        <ele>568</ele>
        <time>1989-12-31T00:00:00Z</time>
      </trkpt>
      <trkpt lat="44.374484969303012" lon="11.179966013878584">
        <ele>568</ele>
        <time>1989-12-31T00:00:00Z</time>
      </trkpt>
      <trkpt lat="44.374420177191496" lon="11.180305480957031">
        <ele>568</ele>
        <time>1989-12-31T00:00:00Z</time>
      </trkpt>
      <trkpt lat="44.374321019276977" lon="11.180555261671543">
        <ele>568</ele>
        <time>1989-12-31T00:00:00Z</time>
      </trkpt>
      <trkpt lat="44.374218005686998" lon="11.180601110681891">
        <ele>568</ele>
        <time>1989-12-31T00:00:00Z</time>
      </trkpt>
      <trkpt lat="44.374191267415881" lon="11.180465659126639">
        <ele>568</ele>
        <time>1989-12-31T00:00:00Z</time>
      </trkpt>
      <trkpt lat="44.374101161956787" lon="11.180713176727295">
        <ele>503</ele>
        <time>2003-09-28T08:54:00Z</time>
      </trkpt>
      <trkpt lat="44.374079704284668" lon="11.180884838104248">
        <ele>497</ele>
        <time>2003-09-28T08:55:56Z</time>
      </trkpt>
      <trkpt lat="44.374015331268311" lon="11.180970668792725">
        <ele>494</ele>
        <time>2003-09-28T08:56:00Z</time>
      </trkpt>
      <trkpt lat="44.373929500579834" lon="11.181056499481201">
        <ele>488</ele>
        <time>2003-09-28T08:56:04Z</time>
      </trkpt>
      <trkpt lat="44.373693466186523" lon="11.181056499481201">
        <ele>478</ele>
        <time>2003-09-28T09:03:00Z</time>
      </trkpt>
      <trkpt lat="44.373650634661317" lon="11.181056499481201">
        <ele>477</ele>
        <time>2003-09-28T09:03:02Z</time>
      </trkpt>
      <trkpt lat="44.373586177825928" lon="11.181163787841797">
        <ele>474</ele>
        <time>2003-09-28T09:03:08Z</time>
      </trkpt>
      <trkpt lat="44.373478889465332" lon="11.181249618530273">
        <ele>472</ele>
        <time>2003-09-28T09:03:14Z</time>
      </trkpt>
      <trkpt lat="44.373371601104736" lon="11.181313991546631">
        <ele>470</ele>
        <time>2003-09-28T09:03:21Z</time>
      </trkpt>
      <trkpt lat="44.373307228088379" lon="11.181399822235107">
        <ele>468</ele>
        <time>2003-09-28T09:03:26Z</time>
      </trkpt>
      <trkpt lat="44.373307228088379" lon="11.181421279907227">
        <ele>467</ele>
        <time>2003-09-28T09:03:27Z</time>
      </trkpt>
      <trkpt lat="44.373199939727783" lon="11.181485736742616">
        <ele>464</ele>
        <time>2003-09-28T09:03:33Z</time>
      </trkpt>
      <trkpt lat="44.373135566711426" lon="11.181571483612061">
        <ele>460</ele>
        <time>2003-09-28T09:03:38Z</time>
      </trkpt>
      <trkpt lat="44.37302827835083" lon="11.181678771972656">
        <ele>457</ele>
        <time>2003-09-28T09:03:48Z</time>
      </trkpt>
      <trkpt lat="44.373006820678711" lon="11.181743061169982">
        <ele>455</ele>
        <time>2003-09-28T09:03:50Z</time>
      </trkpt>
      <trkpt lat="44.372963905334473" lon="11.181786060333252">
        <ele>453</ele>
        <time>2003-09-28T09:03:53Z</time>
      </trkpt>
      <trkpt lat="44.372942363843322" lon="11.181807518005371">
        <ele>453</ele>
        <time>2003-09-28T09:03:54Z</time>
      </trkpt>
      <trkpt lat="44.372878074645996" lon="11.18182897567749">
        <ele>452</ele>
        <time>2003-09-28T09:03:56Z</time>
      </trkpt>
      <trkpt lat="44.3727707862854" lon="11.181893264874816">
        <ele>449</ele>
        <time>2003-09-28T09:04:02Z</time>
      </trkpt>
      <trkpt lat="44.372665425762534" lon="11.181873315945268">
        <ele>449</ele>
        <time>1989-12-31T00:00:00Z</time>
      </trkpt>
      <trkpt lat="44.37255478464067" lon="11.182018322870135">
        <ele>449</ele>
        <time>1989-12-31T00:00:00Z</time>
      </trkpt>
      <trkpt lat="44.372531902045012" lon="11.181918075308204">
        <ele>449</ele>
        <time>1989-12-31T00:00:00Z</time>
      </trkpt>
      <trkpt lat="44.372663497924805" lon="11.18163594044745">
        <ele>433</ele>
        <time>2003-09-28T09:05:16Z</time>
      </trkpt>
      <trkpt lat="44.372727870941162" lon="11.181550025939941">
        <ele>431</ele>
        <time>2003-09-28T09:05:21Z</time>
      </trkpt>
      <trkpt lat="44.372813701629639" lon="11.181399822235107">
        <ele>428</ele>
        <time>2003-09-28T09:05:37Z</time>
      </trkpt>
      <trkpt lat="44.372813701629639" lon="11.181313991546631">
        <ele>426</ele>
        <time>2003-09-28T09:05:41Z</time>
      </trkpt>
      <trkpt lat="44.372835159301758" lon="11.181206703186035">
        <ele>423</ele>
        <time>2003-09-28T09:05:46Z</time>
      </trkpt>
      <trkpt lat="44.372899532318115" lon="11.180970668792725">
        <ele>420</ele>
        <time>2003-09-28T09:05:54Z</time>
      </trkpt>
      <trkpt lat="44.372898107394576" lon="11.180741339921951">
        <ele>420</ele>
        <time>1989-12-31T00:00:00Z</time>
      </trkpt>
      <trkpt lat="44.3727707862854" lon="11.180820465087891">
        <ele>414</ele>
        <time>2003-09-28T09:22:14Z</time>
      </trkpt>
      <trkpt lat="44.372749328613281" lon="11.18084192276001">
        <ele>414</ele>
        <time>2003-09-28T09:22:15Z</time>
      </trkpt>
      <trkpt lat="44.372685039415956" lon="11.180949211120605">
        <ele>412</ele>
        <time>2003-09-28T09:22:19Z</time>
      </trkpt>
      <trkpt lat="44.372685039415956" lon="11.180970668792725">
        <ele>411</ele>
        <time>2003-09-28T09:22:20Z</time>
      </trkpt>
      <trkpt lat="44.372599124908447" lon="11.181142330169678">
        <ele>409</ele>
        <time>2003-09-28T09:22:26Z</time>
      </trkpt>
      <trkpt lat="44.372491836547852" lon="11.181335365399718">
        <ele>406</ele>
        <time>2003-09-28T09:22:36Z</time>
      </trkpt>
      <trkpt lat="44.372384464368224" lon="11.181442737579346">
        <ele>402</ele>
        <time>2003-09-28T09:22:41Z</time>
      </trkpt>
      <trkpt lat="44.372127139940858" lon="11.181721687316895">
        <ele>399</ele>
        <time>2003-09-28T09:22:54Z</time>
      </trkpt>
      <trkpt lat="44.371955394744873" lon="11.182043636217713">
        <ele>396</ele>
        <time>2003-09-28T09:23:05Z</time>
      </trkpt>
      <trkpt lat="44.37178373336792" lon="11.18232250213623">
        <ele>393</ele>
        <time>2003-09-28T09:23:15Z</time>
      </trkpt>
      <trkpt lat="44.371654987335205" lon="11.182558536529541">
        <ele>389</ele>
        <time>2003-09-28T09:23:23Z</time>
      </trkpt>
      <trkpt lat="44.371612071990967" lon="11.182665824890137">
        <ele>387</ele>
        <time>2003-09-28T09:23:34Z</time>
      </trkpt>
      <trkpt lat="44.371547698974609" lon="11.182751739397645">
        <ele>385</ele>
        <time>2003-09-28T09:23:45Z</time>
      </trkpt>
      <trkpt lat="44.371461868286133" lon="11.182901859283447">
        <ele>383</ele>
        <time>2003-09-28T09:23:53Z</time>
      </trkpt>
      <trkpt lat="44.371419036760926" lon="11.182966232299805">
        <ele>382</ele>
        <time>2003-09-28T09:23:55Z</time>
      </trkpt>
      <trkpt lat="44.37180326320231" lon="11.182867996394634">
        <ele>382</ele>
        <time>1989-12-31T00:00:00Z</time>
      </trkpt>
      <trkpt lat="44.37225722707808" lon="11.183197991922498">
        <ele>382</ele>
        <time>1989-12-31T00:00:00Z</time>
      </trkpt>
      <trkpt lat="44.372737929224968" lon="11.183215091004968">
        <ele>382</ele>
        <time>1989-12-31T00:00:00Z</time>
      </trkpt>
      <trkpt lat="44.372775983065367" lon="11.183360097929835">
        <ele>382</ele>
        <time>1989-12-31T00:00:00Z</time>
      </trkpt>
      <trkpt lat="44.372543301433325" lon="11.183565119281411">
        <ele>382</ele>
        <time>1989-12-31T00:00:00Z</time>
      </trkpt>
      <trkpt lat="44.372478509321809" lon="11.183939035981894">
        <ele>382</ele>
        <time>1989-12-31T00:00:00Z</time>
      </trkpt>
      <trkpt lat="44.37227725982666" lon="11.184167861938477">
        <ele>363</ele>
        <time>2003-09-28T09:25:26Z</time>
      </trkpt>
      <trkpt lat="44.371955897659063" lon="11.184183117002249">
        <ele>363</ele>
        <time>1989-12-31T00:00:00Z</time>
      </trkpt>
      <trkpt lat="44.371788008138537" lon="11.18400382809341">
        <ele>363</ele>
        <time>1989-12-31T00:00:00Z</time>
      </trkpt>
      <trkpt lat="44.371658340096474" lon="11.18419736623764">
        <ele>363</ele>
        <time>1989-12-31T00:00:00Z</time>
      </trkpt>
      <trkpt lat="44.371483325958252" lon="11.184446811676025">
        <ele>354</ele>
        <time>2003-09-28T09:25:45Z</time>
      </trkpt>
      <trkpt lat="44.371376037597656" lon="11.184425437822938">
        <ele>353</ele>
        <time>2003-09-28T09:25:47Z</time>
      </trkpt>
      <trkpt lat="44.371268665418029" lon="11.184446811676025">
        <ele>351</ele>
        <time>2003-09-28T09:25:49Z</time>
      </trkpt>
      <trkpt lat="44.371011340990663" lon="11.184403896331787">
        <ele>347</ele>
        <time>2003-09-28T09:25:54Z</time>
      </trkpt>
      <trkpt lat="44.370903968811035" lon="11.184382438659668">
        <ele>347</ele>
        <time>2003-09-28T09:25:56Z</time>
      </trkpt>
      <trkpt lat="44.370689392089844" lon="11.184296607971191">
        <ele>346</ele>
        <time>2003-09-28T09:26:00Z</time>
      </trkpt>
      <trkpt lat="44.370216401293874" lon="11.184302307665348">
        <ele>346</ele>
        <time>1989-12-31T00:00:00Z</time>
      </trkpt>
      <trkpt lat="44.369598403573036" lon="11.185177797451615">
        <ele>346</ele>
        <time>1989-12-31T00:00:00Z</time>
      </trkpt>
      <trkpt lat="44.369232198223472" lon="11.185369491577148">
        <ele>325</ele>
        <time>1989-12-31T00:00:00Z</time>
      </trkpt>
      <trkpt lat="44.36911778524518" lon="11.185945495963097">
        <ele>325</ele>
        <time>1989-12-31T00:00:00Z</time>
      </trkpt>
      <trkpt lat="44.369159694761038" lon="11.186304073780775">
        <ele>325</ele>
        <time>1989-12-31T00:00:00Z</time>
      </trkpt>
      <trkpt lat="44.369014771655202" lon="11.186656029894948">
        <ele>315</ele>
        <time>1989-12-31T00:00:00Z</time>
      </trkpt>
      <trkpt lat="44.369102530181408" lon="11.187021313235164">
        <ele>310</ele>
        <time>1989-12-31T00:00:00Z</time>
      </trkpt>
      <trkpt lat="44.369022399187088" lon="11.187137570232153">
        <ele>310</ele>
        <time>1989-12-31T00:00:00Z</time>
      </trkpt>
      <trkpt lat="44.368770606815815" lon="11.187172941863537">
        <ele>300</ele>
        <time>1989-12-31T00:00:00Z</time>
      </trkpt>
      <trkpt lat="44.368751998990774" lon="11.187217701226473">
        <ele>298</ele>
        <time>2004-12-08T10:43:05Z</time>
      </trkpt>
      <trkpt lat="44.368709083646536" lon="11.187582481652498">
        <ele>296</ele>
        <time>2004-12-08T10:43:13Z</time>
      </trkpt>
      <trkpt lat="44.36860179528594" lon="11.187711227685213">
        <ele>292</ele>
        <time>2004-12-08T10:43:18Z</time>
      </trkpt>
      <trkpt lat="44.368558879941702" lon="11.187818516045809">
        <ele>292</ele>
        <time>2004-12-08T10:43:20Z</time>
      </trkpt>
      <trkpt lat="44.368473133072257" lon="11.188033092767">
        <ele>290</ele>
        <time>2004-12-08T10:43:24Z</time>
      </trkpt>
      <trkpt lat="44.368408676236868" lon="11.188226211816072">
        <ele>289</ele>
        <time>2004-12-08T10:43:27Z</time>
      </trkpt>
      <trkpt lat="44.368151184171438" lon="11.188440788537264">
        <ele>283</ele>
        <time>2004-12-08T10:43:31Z</time>
      </trkpt>
      <trkpt lat="44.3681082688272" lon="11.188505161553621">
        <ele>282</ele>
        <time>2004-12-08T10:43:32Z</time>
      </trkpt>
      <trkpt lat="44.367829319089651" lon="11.188698280602694">
        <ele>278</ele>
        <time>2004-12-08T10:43:37Z</time>
      </trkpt>
      <trkpt lat="44.367679115384817" lon="11.18878411129117">
        <ele>275</ele>
        <time>2004-12-08T10:43:41Z</time>
      </trkpt>
      <trkpt lat="44.36765774153173" lon="11.188805568963289">
        <ele>275</ele>
        <time>2004-12-08T10:43:42Z</time>
      </trkpt>
      <trkpt lat="44.367528911679983" lon="11.188805568963289">
        <ele>271</ele>
        <time>2004-12-08T10:43:46Z</time>
      </trkpt>
      <trkpt lat="44.367443080991507" lon="11.188805568963289">
        <ele>268</ele>
        <time>2004-12-08T10:43:48Z</time>
      </trkpt>
      <trkpt lat="44.367378707975149" lon="11.188612533733249">
        <ele>264</ele>
        <time>2004-12-08T10:43:55Z</time>
      </trkpt>
      <trkpt lat="44.367400165647268" lon="11.188355041667819">
        <ele>266</ele>
        <time>2004-12-08T10:48:01Z</time>
      </trkpt>
      <trkpt lat="44.367249961942434" lon="11.188376415520906">
        <ele>267</ele>
        <time>2004-12-08T10:48:09Z</time>
      </trkpt>
      <trkpt lat="44.367164131253958" lon="11.188934314996004">
        <ele>267</ele>
        <time>2004-12-08T10:48:25Z</time>
      </trkpt>
      <trkpt lat="44.367164131253958" lon="11.188998688012362">
        <ele>268</ele>
        <time>2004-12-08T10:48:27Z</time>
      </trkpt>
      <trkpt lat="44.367078300565481" lon="11.189191807061434">
        <ele>272</ele>
        <time>2004-12-08T10:48:36Z</time>
      </trkpt>
      <trkpt lat="44.366992469877005" lon="11.189363468438387">
        <ele>275</ele>
        <time>2004-12-08T10:48:46Z</time>
      </trkpt>
      <trkpt lat="44.366734977811575" lon="11.189513672143221">
        <ele>279</ele>
        <time>2004-12-08T10:49:04Z</time>
      </trkpt>
      <trkpt lat="44.366584774106741" lon="11.18957812897861">
        <ele>282</ele>
        <time>2004-12-08T10:49:15Z</time>
      </trkpt>
      <trkpt lat="44.366327282041311" lon="11.189835537225008">
        <ele>284</ele>
        <time>2004-12-08T10:49:38Z</time>
      </trkpt>
      <trkpt lat="44.366262909024954" lon="11.189985824748874">
        <ele>287</ele>
        <time>2004-12-08T10:49:48Z</time>
      </trkpt>
      <trkpt lat="44.366284366697073" lon="11.190007198601961">
        <ele>287</ele>
        <time>2004-12-08T10:49:49Z</time>
      </trkpt>
      <trkpt lat="44.366177078336477" lon="11.190200317651033">
        <ele>290</ele>
        <time>2004-12-08T10:50:02Z</time>
      </trkpt>
      <trkpt lat="44.366155620664358" lon="11.19058663956821">
        <ele>293</ele>
        <time>2004-12-08T10:50:25Z</time>
      </trkpt>
      <trkpt lat="44.365898128598928" lon="11.191080082207918">
        <ele>294</ele>
        <time>2004-12-08T10:50:46Z</time>
      </trkpt>
      <trkpt lat="44.365668296813965" lon="11.191528011113405">
        <ele>296</ele>
        <time>2002-11-09T09:47:37Z</time>
      </trkpt>
      <trkpt lat="44.365668296813965" lon="11.191506385803223">
        <ele>300</ele>
        <time>2003-03-22T09:47:28Z</time>
      </trkpt>
      <trkpt lat="44.365668296813965" lon="11.191484928131104">
        <ele>301</ele>
        <time>2003-03-22T09:47:30Z</time>
      </trkpt>
      <trkpt lat="44.365646839141846" lon="11.191270435228944">
        <ele>304</ele>
        <time>2003-03-22T09:47:41Z</time>
      </trkpt>
      <trkpt lat="44.365646839141846" lon="11.191141605377197">
        <ele>307</ele>
        <time>2003-03-22T09:47:49Z</time>
      </trkpt>
      <trkpt lat="44.365754127502441" lon="11.191012859344482">
        <ele>308</ele>
        <time>2003-03-22T09:48:09Z</time>
      </trkpt>
      <trkpt lat="44.365818500518799" lon="11.19086273945868">
        <ele>311</ele>
        <time>2003-03-22T09:48:20Z</time>
      </trkpt>
      <trkpt lat="44.365882873535156" lon="11.1905837059021">
        <ele>314</ele>
        <time>2003-03-22T09:48:35Z</time>
      </trkpt>
      <trkpt lat="44.365904331207275" lon="11.190261840820313">
        <ele>316</ele>
        <time>2003-03-22T09:48:56Z</time>
      </trkpt>
      <trkpt lat="44.365968704223633" lon="11.18983268737793">
        <ele>314</ele>
        <time>2003-03-22T09:49:18Z</time>
      </trkpt>
      <trkpt lat="44.365882873535156" lon="11.18931770324707">
        <ele>316</ele>
        <time>2003-03-22T09:49:38Z</time>
      </trkpt>
      <trkpt lat="44.365882873535156" lon="11.188738262280822">
        <ele>318</ele>
        <time>2003-03-22T09:50:02Z</time>
      </trkpt>
      <trkpt lat="44.366011619567871" lon="11.188609600067139">
        <ele>321</ele>
        <time>2003-03-22T09:50:12Z</time>
      </trkpt>
      <trkpt lat="44.36603307723999" lon="11.188609600067139">
        <ele>321</ele>
        <time>2003-03-22T09:50:13Z</time>
      </trkpt>
      <trkpt lat="44.366140365600586" lon="11.1885666847229">
        <ele>323</ele>
        <time>2003-03-22T09:50:21Z</time>
      </trkpt>
      <trkpt lat="44.366097534075379" lon="11.188330734148622">
        <ele>323</ele>
        <time>2003-03-22T09:50:37Z</time>
      </trkpt>
      <trkpt lat="44.366075992584229" lon="11.188094615936279">
        <ele>320</ele>
        <time>2003-03-22T09:50:47Z</time>
      </trkpt>
      <trkpt lat="44.36603307723999" lon="11.18783712387085">
        <ele>317</ele>
        <time>2003-03-22T09:50:56Z</time>
      </trkpt>
      <trkpt lat="44.365882873535156" lon="11.187300682067871">
        <ele>320</ele>
        <time>2003-03-22T09:51:16Z</time>
      </trkpt>
      <trkpt lat="44.365882873535156" lon="11.187193393707275">
        <ele>322</ele>
        <time>2003-03-22T09:51:21Z</time>
      </trkpt>
      <trkpt lat="44.365861415863037" lon="11.18708610534668">
        <ele>326</ele>
        <time>2003-03-22T09:51:26Z</time>
      </trkpt>
      <trkpt lat="44.365839958190918" lon="11.187000274658203">
        <ele>327</ele>
        <time>2003-03-22T09:51:29Z</time>
      </trkpt>
      <trkpt lat="44.365711212158203" lon="11.186785697937012">
        <ele>330</ele>
        <time>2003-03-22T09:51:50Z</time>
      </trkpt>
      <trkpt lat="44.365561008453369" lon="11.186721324920654">
        <ele>333</ele>
        <time>2003-03-22T09:52:09Z</time>
      </trkpt>
      <trkpt lat="44.365561008453369" lon="11.186721324920654">
        <ele>333</ele>
        <time>2003-03-22T09:52:11Z</time>
      </trkpt>
      <trkpt lat="44.365453720092773" lon="11.186635494232178">
        <ele>337</ele>
        <time>2003-03-22T09:52:28Z</time>
      </trkpt>
      <trkpt lat="44.365453720092773" lon="11.18657112121582">
        <ele>340</ele>
        <time>2003-03-22T09:52:44Z</time>
      </trkpt>
      <trkpt lat="44.365432262420654" lon="11.186378002166748">
        <ele>342</ele>
        <time>2003-03-22T09:53:05Z</time>
      </trkpt>
      <trkpt lat="44.365410804748535" lon="11.186356460675597">
        <ele>343</ele>
        <time>2003-03-22T09:56:49Z</time>
      </trkpt>
      <trkpt lat="44.365367889404297" lon="11.186270713806152">
        <ele>345</ele>
        <time>2003-03-22T09:57:00Z</time>
      </trkpt>
      <trkpt lat="44.36528205871582" lon="11.186141967773438">
        <ele>348</ele>
        <time>2003-03-22T09:57:13Z</time>
      </trkpt>
      <trkpt lat="44.36523905955255" lon="11.186056137084961">
        <ele>351</ele>
        <time>2003-03-22T09:57:26Z</time>
      </trkpt>
      <trkpt lat="44.365196228027344" lon="11.185905933380127">
        <ele>354</ele>
        <time>2003-03-22T09:57:42Z</time>
      </trkpt>
      <trkpt lat="44.365131938830018" lon="11.185691440477967">
        <ele>357</ele>
        <time>2003-03-22T09:58:00Z</time>
      </trkpt>
      <trkpt lat="44.365067481994629" lon="11.185648441314697">
        <ele>359</ele>
        <time>2003-03-22T09:58:08Z</time>
      </trkpt>
      <trkpt lat="44.365003108978271" lon="11.185626983642578">
        <ele>362</ele>
        <time>2003-03-22T09:58:23Z</time>
      </trkpt>
      <trkpt lat="44.365003108978271" lon="11.185519695281982">
        <ele>371</ele>
        <time>2003-03-22T09:59:48Z</time>
      </trkpt>
      <trkpt lat="44.365196228027344" lon="11.185433864593506">
        <ele>371</ele>
        <time>2003-03-22T10:00:07Z</time>
      </trkpt>
      <trkpt lat="44.365453720092773" lon="11.185390865430236">
        <ele>374</ele>
        <time>2003-03-22T10:00:25Z</time>
      </trkpt>
      <trkpt lat="44.365475177764893" lon="11.185390865430236">
        <ele>374</ele>
        <time>2003-03-22T10:00:26Z</time>
      </trkpt>
      <trkpt lat="44.365518093109131" lon="11.185412406921387">
        <ele>375</ele>
        <time>2003-03-22T10:00:29Z</time>
      </trkpt>
      <trkpt lat="44.365625381469727" lon="11.185433864593506">
        <ele>378</ele>
        <time>2003-03-22T10:00:38Z</time>
      </trkpt>
      <trkpt lat="44.365711212158203" lon="11.185476779937744">
        <ele>380</ele>
        <time>2003-03-22T10:00:43Z</time>
      </trkpt>
      <trkpt lat="44.365754127502441" lon="11.185476779937744">
        <ele>381</ele>
        <time>2003-03-22T10:00:45Z</time>
      </trkpt>
      <trkpt lat="44.365796959027648" lon="11.185476779937744">
        <ele>382</ele>
        <time>2003-03-22T10:00:50Z</time>
      </trkpt>
      <trkpt lat="44.365968704223633" lon="11.185305118560791">
        <ele>383</ele>
        <time>2003-03-22T10:01:08Z</time>
      </trkpt>
      <trkpt lat="44.366075992584229" lon="11.185197830200195">
        <ele>387</ele>
        <time>2003-03-22T10:01:20Z</time>
      </trkpt>
      <trkpt lat="44.366075992584229" lon="11.185176372528076">
        <ele>387</ele>
        <time>2003-03-22T10:01:21Z</time>
      </trkpt>
      <trkpt lat="44.366140365600586" lon="11.18513354100287">
        <ele>390</ele>
        <time>2003-03-22T10:01:26Z</time>
      </trkpt>
      <trkpt lat="44.366140365600586" lon="11.18513354100287">
        <ele>390</ele>
        <time>2003-03-22T10:01:27Z</time>
      </trkpt>
      <trkpt lat="44.366247737780213" lon="11.185047626495361">
        <ele>393</ele>
        <time>2003-03-22T10:01:38Z</time>
      </trkpt>
      <trkpt lat="44.366354858502746" lon="11.185026168823242">
        <ele>395</ele>
        <time>2003-03-22T10:01:49Z</time>
      </trkpt>
      <trkpt lat="44.366419315338135" lon="11.18506908416748">
        <ele>396</ele>
        <time>2003-03-22T10:01:56Z</time>
      </trkpt>
      <trkpt lat="44.36654806137085" lon="11.185348033905029">
        <ele>399</ele>
        <time>2003-03-22T10:02:16Z</time>
      </trkpt>
      <trkpt lat="44.366676807403564" lon="11.185541236773133">
        <ele>402</ele>
        <time>2003-03-22T10:02:29Z</time>
      </trkpt>
      <trkpt lat="44.366676807403564" lon="11.185541236773133">
        <ele>402</ele>
        <time>2003-03-22T10:02:30Z</time>
      </trkpt>
      <trkpt lat="44.366719722747803" lon="11.185519695281982">
        <ele>402</ele>
        <time>2003-03-22T10:02:34Z</time>
      </trkpt>
      <trkpt lat="44.366698265075684" lon="11.185412406921387">
        <ele>404</ele>
        <time>2003-03-22T10:02:41Z</time>
      </trkpt>
      <trkpt lat="44.366633892059326" lon="11.185154914855957">
        <ele>407</ele>
        <time>2003-03-22T10:02:58Z</time>
      </trkpt>
      <trkpt lat="44.366569519042969" lon="11.184811592102051">
        <ele>409</ele>
        <time>2003-03-22T10:03:19Z</time>
      </trkpt>
      <trkpt lat="44.366419315338135" lon="11.184618473052979">
        <ele>412</ele>
        <time>2003-03-22T10:03:34Z</time>
      </trkpt>
      <trkpt lat="44.366183280944824" lon="11.184639930725098">
        <ele>416</ele>
        <time>2003-03-22T10:03:51Z</time>
      </trkpt>
      <trkpt lat="44.365882873535156" lon="11.184661388397217">
        <ele>419</ele>
        <time>2003-03-22T10:04:11Z</time>
      </trkpt>
      <trkpt lat="44.365689838305116" lon="11.184511184692383">
        <ele>420</ele>
        <time>2003-03-22T10:04:21Z</time>
      </trkpt>
      <trkpt lat="44.365432262420654" lon="11.184446811676025">
        <ele>418</ele>
        <time>2003-03-22T10:04:26Z</time>
      </trkpt>
      <trkpt lat="44.365196228027344" lon="11.18453255854547">
        <ele>419</ele>
        <time>2003-03-22T10:04:35Z</time>
      </trkpt>
      <trkpt lat="44.365131938830018" lon="11.184554100036621">
        <ele>421</ele>
        <time>2003-03-22T10:04:38Z</time>
      </trkpt>
      <trkpt lat="44.364917278289795" lon="11.184575641527772">
        <ele>422</ele>
        <time>2003-03-22T10:04:51Z</time>
      </trkpt>
      <trkpt lat="44.364874362945557" lon="11.184575641527772">
        <ele>423</ele>
        <time>2003-03-22T10:04:53Z</time>
      </trkpt>
      <trkpt lat="44.36457403935492" lon="11.18453255854547">
        <ele>424</ele>
        <time>2003-03-22T10:05:10Z</time>
      </trkpt>
      <trkpt lat="44.364380836486816" lon="11.184318065643311">
        <ele>421</ele>
        <time>2005-04-03T09:20:20Z</time>
      </trkpt>
      <trkpt lat="44.364230632781982" lon="11.184146404266357">
        <ele>418</ele>
        <time>2005-04-03T09:20:04Z</time>
      </trkpt>
      <trkpt lat="44.364230632781982" lon="11.184146404266357">
        <ele>418</ele>
        <time>2005-04-03T09:20:03Z</time>
      </trkpt>
      <trkpt lat="44.364316463470459" lon="11.184060573577881">
        <ele>415</ele>
        <time>2005-04-03T09:19:44Z</time>
      </trkpt>
      <trkpt lat="44.364380836486816" lon="11.184124862775207">
        <ele>413</ele>
        <time>2005-04-03T09:19:29Z</time>
      </trkpt>
      <trkpt lat="44.364402294158936" lon="11.184103488922119">
        <ele>412</ele>
        <time>2005-04-03T09:19:27Z</time>
      </trkpt>
      <trkpt lat="44.364488124847412" lon="11.184039115905762">
        <ele>409</ele>
        <time>2005-04-03T09:19:15Z</time>
      </trkpt>
      <trkpt lat="44.36457403935492" lon="11.183888912200928">
        <ele>406</ele>
        <time>2005-04-03T09:18:55Z</time>
      </trkpt>
      <trkpt lat="44.364767074584961" lon="11.183953285217285">
        <ele>403</ele>
        <time>2005-04-03T09:18:41Z</time>
      </trkpt>
      <trkpt lat="44.36478853225708" lon="11.183974659070373">
        <ele>402</ele>
        <time>2005-04-03T09:18:39Z</time>
      </trkpt>
      <trkpt lat="44.364852905273438" lon="11.183974659070373">
        <ele>401</ele>
        <time>2005-04-03T09:18:33Z</time>
      </trkpt>
      <trkpt lat="44.365088939666748" lon="11.183974659070373">
        <ele>398</ele>
        <time>2005-04-03T09:18:09Z</time>
      </trkpt>
      <trkpt lat="44.365260601043701" lon="11.183931827545166">
        <ele>395</ele>
        <time>2005-04-03T09:17:59Z</time>
      </trkpt>
      <trkpt lat="44.365410804748535" lon="11.183910369873047">
        <ele>394</ele>
        <time>2005-04-03T09:17:52Z</time>
      </trkpt>
      <trkpt lat="44.365518093109131" lon="11.183845996856689">
        <ele>391</ele>
        <time>2005-04-03T09:17:35Z</time>
      </trkpt>
      <trkpt lat="44.365711212158203" lon="11.183674335479736">
        <ele>388</ele>
        <time>2005-04-03T09:17:25Z</time>
      </trkpt>
      <trkpt lat="44.366011619567871" lon="11.183288097381592">
        <ele>385</ele>
        <time>2005-04-03T09:17:07Z</time>
      </trkpt>
      <trkpt lat="44.366376399993896" lon="11.182858860120177">
        <ele>382</ele>
        <time>2005-04-03T09:16:46Z</time>
      </trkpt>
      <trkpt lat="44.366590976715088" lon="11.182601535692811">
        <ele>380</ele>
        <time>2005-04-03T09:16:37Z</time>
      </trkpt>
      <trkpt lat="44.36654806137085" lon="11.182472705841064">
        <ele>380</ele>
        <time>2005-04-03T09:16:32Z</time>
      </trkpt>
      <trkpt lat="44.36652660369873" lon="11.182365417480469">
        <ele>380</ele>
        <time>2005-04-03T09:16:26Z</time>
      </trkpt>
      <trkpt lat="44.366397941485047" lon="11.182279586791992">
        <ele>379</ele>
        <time>2005-04-03T09:16:23Z</time>
      </trkpt>
      <trkpt lat="44.36652660369873" lon="11.182107925415039">
        <ele>379</ele>
        <time>2005-04-03T09:16:10Z</time>
      </trkpt>
      <trkpt lat="44.366869926452637" lon="11.181979179382324">
        <ele>376</ele>
        <time>2005-04-03T09:15:47Z</time>
      </trkpt>
      <trkpt lat="44.367170333862305" lon="11.182000637054443">
        <ele>371</ele>
        <time>2005-04-03T09:15:32Z</time>
      </trkpt>
      <trkpt lat="44.367341995239258" lon="11.181957721710205">
        <ele>370</ele>
        <time>2005-04-03T09:15:24Z</time>
      </trkpt>
      <trkpt lat="44.367556571960449" lon="11.181871891021729">
        <ele>367</ele>
        <time>2005-04-03T09:15:12Z</time>
      </trkpt>
      <trkpt lat="44.36779260635376" lon="11.181485736742616">
        <ele>366</ele>
        <time>2005-04-03T09:14:49Z</time>
      </trkpt>
      <trkpt lat="44.367856979370117" lon="11.181356906890869">
        <ele>365</ele>
        <time>2005-04-03T09:14:41Z</time>
      </trkpt>
      <trkpt lat="44.367856979370117" lon="11.181335365399718">
        <ele>365</ele>
        <time>2005-04-03T09:14:40Z</time>
      </trkpt>
      <trkpt lat="44.367942810058594" lon="11.181185161694884">
        <ele>363</ele>
        <time>2005-04-03T09:14:32Z</time>
      </trkpt>
      <trkpt lat="44.367964267730713" lon="11.181035041809082">
        <ele>359</ele>
        <time>2005-04-03T09:14:23Z</time>
      </trkpt>
      <trkpt lat="44.367985725402832" lon="11.181013584136963">
        <ele>359</ele>
        <time>2005-04-03T09:14:22Z</time>
      </trkpt>
      <trkpt lat="44.367942810058594" lon="11.180756092071533">
        <ele>355</ele>
        <time>2005-04-03T09:14:03Z</time>
      </trkpt>
      <trkpt lat="44.367921436205506" lon="11.180734634399414">
        <ele>355</ele>
        <time>2005-04-03T09:13:56Z</time>
      </trkpt>
      <trkpt lat="44.367814064025879" lon="11.180520141497254">
        <ele>355</ele>
        <time>2005-04-03T09:13:39Z</time>
      </trkpt>
      <trkpt lat="44.367899894714355" lon="11.180541515350342">
        <ele>356</ele>
        <time>2005-04-03T09:13:29Z</time>
      </trkpt>
      <trkpt lat="44.367942810058594" lon="11.180541515350342">
        <ele>354</ele>
        <time>2005-04-03T09:13:25Z</time>
      </trkpt>
      <trkpt lat="44.368007183074951" lon="11.180541515350342">
        <ele>351</ele>
        <time>2005-04-03T09:13:15Z</time>
      </trkpt>
      <trkpt lat="44.36807163991034" lon="11.180498600006104">
        <ele>348</ele>
        <time>2005-04-03T09:12:59Z</time>
      </trkpt>
      <trkpt lat="44.368114471435547" lon="11.180498600006104">
        <ele>345</ele>
        <time>2005-04-03T09:12:47Z</time>
      </trkpt>
      <trkpt lat="44.368135929107666" lon="11.180520141497254">
        <ele>345</ele>
        <time>2005-04-03T09:12:46Z</time>
      </trkpt>
      <trkpt lat="44.368243217468262" lon="11.180605888366699">
        <ele>341</ele>
        <time>2005-04-03T09:12:28Z</time>
      </trkpt>
      <trkpt lat="44.368135929107666" lon="11.180820465087891">
        <ele>338</ele>
        <time>2005-04-03T09:12:06Z</time>
      </trkpt>
      <trkpt lat="44.368135929107666" lon="11.181013584136963">
        <ele>338</ele>
        <time>2005-04-03T09:11:52Z</time>
      </trkpt>
      <trkpt lat="44.368135929107666" lon="11.181035041809082">
        <ele>338</ele>
        <time>2005-04-03T09:11:51Z</time>
      </trkpt>
      <trkpt lat="44.368243217468262" lon="11.181120872497559">
        <ele>334</ele>
        <time>2005-04-03T09:11:22Z</time>
      </trkpt>
      <trkpt lat="44.368264675140381" lon="11.181142330169678">
        <ele>333</ele>
        <time>2005-04-03T09:11:03Z</time>
      </trkpt>
      <trkpt lat="44.368221759796143" lon="11.181378364562988">
        <ele>331</ele>
        <time>2005-04-03T09:10:43Z</time>
      </trkpt>
      <trkpt lat="44.368264675140381" lon="11.181550025939941">
        <ele>330</ele>
        <time>2005-04-03T09:10:15Z</time>
      </trkpt>
      <trkpt lat="44.368350505828857" lon="11.181786060333252">
        <ele>327</ele>
        <time>2005-04-03T09:09:49Z</time>
      </trkpt>
      <trkpt lat="44.368479335680604" lon="11.182000637054443">
        <ele>324</ele>
        <time>2005-04-03T09:09:28Z</time>
      </trkpt>
      <trkpt lat="44.368672370910645" lon="11.182258129119873">
        <ele>321</ele>
        <time>2005-04-03T09:09:06Z</time>
      </trkpt>
      <trkpt lat="44.36877965927124" lon="11.182408332824707">
        <ele>320</ele>
        <time>2005-04-03T09:08:51Z</time>
      </trkpt>
      <trkpt lat="44.368844032287598" lon="11.182494163513184">
        <ele>318</ele>
        <time>2005-04-03T09:08:40Z</time>
      </trkpt>
      <trkpt lat="44.368951320648193" lon="11.182644367218018">
        <ele>317</ele>
        <time>2005-04-03T09:08:25Z</time>
      </trkpt>
      <trkpt lat="44.369015693664551" lon="11.182794570922852">
        <ele>316</ele>
        <time>2005-04-03T09:08:00Z</time>
      </trkpt>
      <trkpt lat="44.369101524353027" lon="11.18283748626709">
        <ele>313</ele>
        <time>2005-04-03T09:07:43Z</time>
      </trkpt>
      <trkpt lat="44.369187438860536" lon="11.183009063825011">
        <ele>311</ele>
        <time>2005-04-03T09:07:27Z</time>
      </trkpt>
      <trkpt lat="44.369208812713623" lon="11.183116436004639">
        <ele>309</ele>
        <time>2005-04-03T09:07:13Z</time>
      </trkpt>
      <trkpt lat="44.369316101074219" lon="11.183395385742188">
        <ele>309</ele>
        <time>2005-04-03T09:06:56Z</time>
      </trkpt>
      <trkpt lat="44.369444763287902" lon="11.183545589447021">
        <ele>307</ele>
        <time>2005-04-03T09:06:36Z</time>
      </trkpt>
      <trkpt lat="44.369444763287902" lon="11.18358850479126">
        <ele>305</ele>
        <time>2005-04-03T09:06:29Z</time>
      </trkpt>
      <trkpt lat="44.369401931762695" lon="11.183652877807617">
        <ele>302</ele>
        <time>2005-04-03T09:06:23Z</time>
      </trkpt>
      <trkpt lat="44.369251728057861" lon="11.183781623840332">
        <ele>301</ele>
        <time>2005-04-03T09:06:06Z</time>
      </trkpt>
      <trkpt lat="44.369165897369385" lon="11.183953285217285">
        <ele>300</ele>
        <time>2005-04-03T09:05:50Z</time>
      </trkpt>
      <trkpt lat="44.369144439697266" lon="11.183974659070373">
        <ele>300</ele>
        <time>2005-04-03T09:05:48Z</time>
      </trkpt>
      <trkpt lat="44.369144439697266" lon="11.184060573577881">
        <ele>302</ele>
        <time>2005-04-03T09:05:37Z</time>
      </trkpt>
      <trkpt lat="44.369122982025146" lon="11.184189319610596">
        <ele>305</ele>
        <time>2005-04-03T09:05:32Z</time>
      </trkpt>
      <trkpt lat="44.369101524353027" lon="11.18433952331543">
        <ele>309</ele>
        <time>2005-04-03T09:05:28Z</time>
      </trkpt>
      <trkpt lat="44.369101524353027" lon="11.184511184692383">
        <ele>313</ele>
        <time>2005-04-03T09:05:22Z</time>
      </trkpt>
      <trkpt lat="44.369165897369385" lon="11.184747219085693">
        <ele>316</ele>
        <time>2005-04-03T09:05:16Z</time>
      </trkpt>
      <trkpt lat="44.369187438860536" lon="11.184854507446289">
        <ele>318</ele>
        <time>2005-04-03T09:05:13Z</time>
      </trkpt>
      <trkpt lat="44.36927318572998" lon="11.184790134429932">
        <ele>321</ele>
        <time>2005-04-03T09:05:09Z</time>
      </trkpt>
      <trkpt lat="44.369316101074219" lon="11.184725761413574">
        <ele>323</ele>
        <time>2005-04-03T09:05:06Z</time>
      </trkpt>
      <trkpt lat="44.369380474090576" lon="11.184704303741455">
        <ele>325</ele>
        <time>2005-04-03T09:05:02Z</time>
      </trkpt>
      <trkpt lat="44.369466304779053" lon="11.184747219085693">
        <ele>328</ele>
        <time>2005-04-03T09:04:59Z</time>
      </trkpt>
      <trkpt lat="44.36953067779541" lon="11.184704303741455">
        <ele>330</ele>
        <time>2005-04-03T09:04:55Z</time>
      </trkpt>
      <trkpt lat="44.369616508483887" lon="11.184725761413574">
        <ele>331</ele>
        <time>2005-04-03T09:04:51Z</time>
      </trkpt>
      <trkpt lat="44.369637966156006" lon="11.184832965955138">
        <ele>333</ele>
        <time>2005-04-03T09:04:49Z</time>
      </trkpt>
      <trkpt lat="44.369659423828125" lon="11.184940338134766">
        <ele>334</ele>
        <time>2005-04-03T09:04:47Z</time>
      </trkpt>
      <trkpt lat="44.369659423828125" lon="11.184961795806885">
        <ele>335</ele>
        <time>2005-04-03T09:04:46Z</time>
      </trkpt>
      <trkpt lat="44.369613574817777" lon="11.185119627043605">
        <ele>346</ele>
        <time>1989-12-31T00:00:00Z</time>
      </trkpt>
      <trkpt lat="44.369564121589065" lon="11.185172097757459">
        <ele>346</ele>
        <time>1989-12-31T00:00:00Z</time>
      </trkpt>
      <trkpt lat="44.369216859340668" lon="11.18536664173007">
        <ele>325</ele>
        <time>1989-12-31T00:00:00Z</time>
      </trkpt>
      <trkpt lat="44.369102530181408" lon="11.185942562296987">
        <ele>325</ele>
        <time>1989-12-31T00:00:00Z</time>
      </trkpt>
      <trkpt lat="44.369144439697266" lon="11.186301223933697">
        <ele>325</ele>
        <time>1989-12-31T00:00:00Z</time>
      </trkpt>
      <trkpt lat="44.36899951659143" lon="11.186653096228838">
        <ele>315</ele>
        <time>1989-12-31T00:00:00Z</time>
      </trkpt>
      <trkpt lat="44.369087191298604" lon="11.187018379569054">
        <ele>310</ele>
        <time>1989-12-31T00:00:00Z</time>
      </trkpt>
      <trkpt lat="44.369007060304284" lon="11.187134720385075">
        <ele>310</ele>
        <time>1989-12-31T00:00:00Z</time>
      </trkpt>
      <trkpt lat="44.368755267933011" lon="11.187170008197427">
        <ele>300</ele>
        <time>1989-12-31T00:00:00Z</time>
      </trkpt>
      <trkpt lat="44.36873666010797" lon="11.187214935198426">
        <ele>298</ele>
        <time>2004-12-08T10:43:05Z</time>
      </trkpt>
      <trkpt lat="44.368693828582764" lon="11.18757963180542">
        <ele>296</ele>
        <time>2004-12-08T10:43:13Z</time>
      </trkpt>
      <trkpt lat="44.368586540222168" lon="11.187708377838135">
        <ele>292</ele>
        <time>2004-12-08T10:43:18Z</time>
      </trkpt>
      <trkpt lat="44.36854362487793" lon="11.18781566619873">
        <ele>292</ele>
        <time>2004-12-08T10:43:20Z</time>
      </trkpt>
      <trkpt lat="44.368457794189453" lon="11.18803015910089">
        <ele>290</ele>
        <time>2004-12-08T10:43:24Z</time>
      </trkpt>
      <trkpt lat="44.368393421173096" lon="11.188223361968994">
        <ele>289</ele>
        <time>2004-12-08T10:43:27Z</time>
      </trkpt>
      <trkpt lat="44.368135929107666" lon="11.188437938690186">
        <ele>283</ele>
        <time>2004-12-08T10:43:31Z</time>
      </trkpt>
      <trkpt lat="44.368093013763428" lon="11.188502311706543">
        <ele>282</ele>
        <time>2004-12-08T10:43:32Z</time>
      </trkpt>
      <trkpt lat="44.367814064025879" lon="11.188695430755615">
        <ele>278</ele>
        <time>2004-12-08T10:43:37Z</time>
      </trkpt>
      <trkpt lat="44.367663860321045" lon="11.188781261444092">
        <ele>275</ele>
        <time>2004-12-08T10:43:41Z</time>
      </trkpt>
      <trkpt lat="44.367642402648926" lon="11.188802719116211">
        <ele>275</ele>
        <time>2004-12-08T10:43:42Z</time>
      </trkpt>
      <trkpt lat="44.367513740435243" lon="11.188802719116211">
        <ele>271</ele>
        <time>2004-12-08T10:43:46Z</time>
      </trkpt>
      <trkpt lat="44.367427825927734" lon="11.188802719116211">
        <ele>268</ele>
        <time>2004-12-08T10:43:48Z</time>
      </trkpt>
      <trkpt lat="44.367363536730409" lon="11.188609600067139">
        <ele>264</ele>
        <time>2004-12-08T10:43:55Z</time>
      </trkpt>
      <trkpt lat="44.367384910583496" lon="11.188352108001709">
        <ele>266</ele>
        <time>2004-12-08T10:48:01Z</time>
      </trkpt>
      <trkpt lat="44.367234706878662" lon="11.188373565673828">
        <ele>267</ele>
        <time>2004-12-08T10:48:09Z</time>
      </trkpt>
      <trkpt lat="44.367148876190186" lon="11.188931465148926">
        <ele>267</ele>
        <time>2004-12-08T10:48:25Z</time>
      </trkpt>
      <trkpt lat="44.367148876190186" lon="11.188995838165283">
        <ele>268</ele>
        <time>2004-12-08T10:48:27Z</time>
      </trkpt>
      <trkpt lat="44.367062961682677" lon="11.189189041033387">
        <ele>272</ele>
        <time>2004-12-08T10:48:36Z</time>
      </trkpt>
      <trkpt lat="44.366977214813232" lon="11.189360618591309">
        <ele>275</ele>
        <time>2004-12-08T10:48:46Z</time>
      </trkpt>
      <trkpt lat="44.366719722747803" lon="11.189510822296143">
        <ele>279</ele>
        <time>2004-12-08T10:49:04Z</time>
      </trkpt>
      <trkpt lat="44.366569519042969" lon="11.1895751953125">
        <ele>282</ele>
        <time>2004-12-08T10:49:15Z</time>
      </trkpt>
      <trkpt lat="44.366312026977539" lon="11.18983268737793">
        <ele>284</ele>
        <time>2004-12-08T10:49:38Z</time>
      </trkpt>
      <trkpt lat="44.366247737780213" lon="11.189982891082764">
        <ele>287</ele>
        <time>2004-12-08T10:49:48Z</time>
      </trkpt>
      <trkpt lat="44.366269111633301" lon="11.190004264935851">
        <ele>287</ele>
        <time>2004-12-08T10:49:49Z</time>
      </trkpt>
      <trkpt lat="44.366161823272705" lon="11.190197467803955">
        <ele>290</ele>
        <time>2004-12-08T10:50:02Z</time>
      </trkpt>
      <trkpt lat="44.366140365600586" lon="11.1905837059021">
        <ele>293</ele>
        <time>2004-12-08T10:50:25Z</time>
      </trkpt>
      <trkpt lat="44.365882873535156" lon="11.19107723236084">
        <ele>294</ele>
        <time>2004-12-08T10:50:46Z</time>
      </trkpt>
      <trkpt lat="44.365496635437012" lon="11.191871166229248">
        <ele>301</ele>
        <time>2004-12-08T10:51:28Z</time>
      </trkpt>
      <trkpt lat="44.365496635437012" lon="11.192042827606201">
        <ele>304</ele>
        <time>2004-12-08T10:51:35Z</time>
      </trkpt>
      <trkpt lat="44.365496635437012" lon="11.192085659131408">
        <ele>305</ele>
        <time>2004-12-08T10:51:37Z</time>
      </trkpt>
      <trkpt lat="44.365410804748535" lon="11.192278861999512">
        <ele>307</ele>
        <time>2004-12-08T10:51:49Z</time>
      </trkpt>
      <trkpt lat="44.365346431732178" lon="11.192257404327393">
        <ele>310</ele>
        <time>2004-12-08T10:51:55Z</time>
      </trkpt>
      <trkpt lat="44.365324974060059" lon="11.192235862836242">
        <ele>310</ele>
        <time>2004-12-08T10:51:57Z</time>
      </trkpt>
      <trkpt lat="44.36528205871582" lon="11.192235862836242">
        <ele>312</ele>
        <time>2004-12-08T10:52:00Z</time>
      </trkpt>
      <trkpt lat="44.365174770355225" lon="11.192235862836242">
        <ele>313</ele>
        <time>2004-12-08T10:52:10Z</time>
      </trkpt>
      <trkpt lat="44.364981735125184" lon="11.192450523376465">
        <ele>314</ele>
        <time>2004-12-08T10:52:28Z</time>
      </trkpt>
      <trkpt lat="44.364659786224365" lon="11.192793762311339">
        <ele>316</ele>
        <time>2004-12-08T10:52:53Z</time>
      </trkpt>
      <trkpt lat="44.364509582519531" lon="11.193029880523682">
        <ele>320</ele>
        <time>2004-12-08T10:53:06Z</time>
      </trkpt>
      <trkpt lat="44.364423835650086" lon="11.193244541063905">
        <ele>323</ele>
        <time>2004-12-08T10:53:17Z</time>
      </trkpt>
      <trkpt lat="44.364316463470459" lon="11.193523406982422">
        <ele>325</ele>
        <time>2004-12-08T10:53:33Z</time>
      </trkpt>
      <trkpt lat="44.364058971405029" lon="11.193673610687256">
        <ele>327</ele>
        <time>2004-12-08T10:53:53Z</time>
      </trkpt>
      <trkpt lat="44.363887310028076" lon="11.193780899047852">
        <ele>329</ele>
        <time>2004-12-08T10:54:07Z</time>
      </trkpt>
      <trkpt lat="44.363737106323242" lon="11.193931102752686">
        <ele>330</ele>
        <time>2004-12-08T10:54:25Z</time>
      </trkpt>
      <trkpt lat="44.363715564832091" lon="11.193974018096924">
        <ele>330</ele>
        <time>2004-12-08T10:54:44Z</time>
      </trkpt>
      <trkpt lat="44.363715564832091" lon="11.194124221801758">
        <ele>331</ele>
        <time>2004-12-08T10:55:56Z</time>
      </trkpt>
      <trkpt lat="44.363694190979004" lon="11.194231510162354">
        <ele>331</ele>
        <time>2004-12-08T10:56:05Z</time>
      </trkpt>
      <trkpt lat="44.363694190979004" lon="11.194295883178711">
        <ele>332</ele>
        <time>2004-12-08T10:56:09Z</time>
      </trkpt>
      <trkpt lat="44.363737106323242" lon="11.194725036621094">
        <ele>334</ele>
        <time>2004-12-08T10:56:31Z</time>
      </trkpt>
      <trkpt lat="44.363865936174989" lon="11.194982528686523">
        <ele>331</ele>
        <time>2004-12-08T10:56:43Z</time>
      </trkpt>
      <trkpt lat="44.363930225372314" lon="11.195218563079834">
        <ele>329</ele>
        <time>2004-12-08T10:56:46Z</time>
      </trkpt>
      <trkpt lat="44.363930225372314" lon="11.195518970489502">
        <ele>326</ele>
        <time>2004-12-08T10:56:49Z</time>
      </trkpt>
      <trkpt lat="44.3638014793396" lon="11.195840835571289">
        <ele>323</ele>
        <time>2004-12-08T10:56:52Z</time>
      </trkpt>
      <trkpt lat="44.363501071929932" lon="11.1960768699646">
        <ele>319</ele>
        <time>2004-12-08T10:56:57Z</time>
      </trkpt>
      <trkpt lat="44.363329410552979" lon="11.196098327636719">
        <ele>315</ele>
        <time>2004-12-08T10:57:00Z</time>
      </trkpt>
      <trkpt lat="44.363329410552979" lon="11.1960768699646">
        <ele>314</ele>
        <time>2004-12-08T10:57:02Z</time>
      </trkpt>
      <trkpt lat="44.363114833831787" lon="11.195926666259766">
        <ele>313</ele>
        <time>2004-12-08T10:57:20Z</time>
      </trkpt>
      <trkpt lat="44.362964630126953" lon="11.195797920227051">
        <ele>311</ele>
        <time>2004-12-08T10:57:26Z</time>
      </trkpt>
      <trkpt lat="44.362750137224793" lon="11.195669174194336">
        <ele>311</ele>
        <time>2004-12-08T10:57:34Z</time>
      </trkpt>
      <trkpt lat="44.362664222717285" lon="11.195626258850098">
        <ele>310</ele>
        <time>2004-12-08T10:57:36Z</time>
      </trkpt>
      <trkpt lat="44.362020492553711" lon="11.195089817047119">
        <ele>310</ele>
        <time>2004-12-08T10:57:54Z</time>
      </trkpt>
      <trkpt lat="44.36174145899713" lon="11.194531917572021">
        <ele>311</ele>
        <time>2004-12-08T10:58:09Z</time>
      </trkpt>
      <trkpt lat="44.361312389373779" lon="11.193995475769043">
        <ele>311</ele>
        <time>2004-12-08T10:58:28Z</time>
      </trkpt>
      <trkpt lat="44.361355304718018" lon="11.194145679473877">
        <ele>311</ele>
        <time>2004-12-08T10:58:36Z</time>
      </trkpt>
      <trkpt lat="44.361269474029541" lon="11.194252967834473">
        <ele>309</ele>
        <time>2004-12-08T10:58:40Z</time>
      </trkpt>
      <trkpt lat="44.361119270324707" lon="11.194467460736632">
        <ele>306</ele>
        <time>2004-12-08T10:58:45Z</time>
      </trkpt>
      <trkpt lat="44.360969066619873" lon="11.194531917572021">
        <ele>305</ele>
        <time>2004-12-08T10:58:50Z</time>
      </trkpt>
      <trkpt lat="44.360775863751769" lon="11.194403171539307">
        <ele>304</ele>
        <time>2004-12-08T10:59:01Z</time>
      </trkpt>
      <trkpt lat="44.360711574554443" lon="11.194424629211426">
        <ele>303</ele>
        <time>2004-12-08T10:59:04Z</time>
      </trkpt>
      <trkpt lat="44.360561370849609" lon="11.194875240325928">
        <ele>301</ele>
        <time>2004-12-08T10:59:17Z</time>
      </trkpt>
      <trkpt lat="44.360475540161133" lon="11.195304393768311">
        <ele>302</ele>
        <time>2004-12-08T10:59:32Z</time>
      </trkpt>
      <trkpt lat="44.360454082489014" lon="11.195325935259461">
        <ele>302</ele>
        <time>2004-12-08T10:59:41Z</time>
      </trkpt>
      <trkpt lat="44.360604286193848" lon="11.19556188583374">
        <ele>300</ele>
        <time>2004-12-08T10:59:49Z</time>
      </trkpt>
      <trkpt lat="44.360647201538086" lon="11.195669174194336">
        <ele>298</ele>
        <time>2004-12-08T10:59:52Z</time>
      </trkpt>
      <trkpt lat="44.360733032226563" lon="11.195862293243408">
        <ele>296</ele>
        <time>2004-12-08T10:59:56Z</time>
      </trkpt>
      <trkpt lat="44.360818862915039" lon="11.195969581604004">
        <ele>292</ele>
        <time>2004-12-08T10:59:59Z</time>
      </trkpt>
      <trkpt lat="44.360904693603516" lon="11.196119785308838">
        <ele>289</ele>
        <time>2004-12-08T11:00:03Z</time>
      </trkpt>
      <trkpt lat="44.360969066619873" lon="11.196248531341553">
        <ele>286</ele>
        <time>2004-12-08T11:00:06Z</time>
      </trkpt>
      <trkpt lat="44.360990524291992" lon="11.196269989013672">
        <ele>286</ele>
        <time>2004-12-08T11:00:07Z</time>
      </trkpt>
      <trkpt lat="44.361119270324707" lon="11.196484565734863">
        <ele>282</ele>
        <time>2004-12-08T11:00:12Z</time>
      </trkpt>
      <trkpt lat="44.361162185668945" lon="11.196613311767578">
        <ele>279</ele>
        <time>2004-12-08T11:00:14Z</time>
      </trkpt>
      <trkpt lat="44.361355304718018" lon="11.197021007537842">
        <ele>275</ele>
        <time>2004-12-08T11:00:18Z</time>
      </trkpt>
      <trkpt lat="44.361398220062256" lon="11.197106838226318">
        <ele>275</ele>
        <time>2004-12-08T11:00:19Z</time>
      </trkpt>
      <trkpt lat="44.361462593078613" lon="11.197256958112121">
        <ele>272</ele>
        <time>2004-12-08T11:00:21Z</time>
      </trkpt>
      <trkpt lat="44.361655712127686" lon="11.197836399078369">
        <ele>267</ele>
        <time>2004-12-08T11:00:28Z</time>
      </trkpt>
      <trkpt lat="44.36174145899713" lon="11.19807243347168">
        <ele>264</ele>
        <time>2004-12-08T11:00:32Z</time>
      </trkpt>
      <trkpt lat="44.361891662701964" lon="11.198415840044618">
        <ele>261</ele>
        <time>2004-12-08T11:00:38Z</time>
      </trkpt>
      <trkpt lat="44.361913204193115" lon="11.198458671569824">
        <ele>261</ele>
        <time>2004-12-08T11:00:39Z</time>
      </trkpt>
      <trkpt lat="44.362042034044862" lon="11.19856595993042">
        <ele>260</ele>
        <time>2004-12-08T11:00:42Z</time>
      </trkpt>
      <trkpt lat="44.362235069274902" lon="11.198887825012207">
        <ele>258</ele>
        <time>2004-12-08T11:00:53Z</time>
      </trkpt>
      <trkpt lat="44.362492561340332" lon="11.199102401733398">
        <ele>257</ele>
        <time>2004-12-08T11:01:04Z</time>
      </trkpt>
      <trkpt lat="44.362814426422119" lon="11.199338436126709">
        <ele>259</ele>
        <time>2004-12-08T11:01:17Z</time>
      </trkpt>
      <trkpt lat="44.363372325897217" lon="11.199531638994813">
        <ele>261</ele>
        <time>2004-12-08T11:01:36Z</time>
      </trkpt>
      <trkpt lat="44.363436698913574" lon="11.199510097503662">
        <ele>261</ele>
        <time>2004-12-08T11:01:42Z</time>
      </trkpt>
      <trkpt lat="44.363479614257813" lon="11.199531638994813">
        <ele>261</ele>
        <time>2004-12-08T11:01:46Z</time>
      </trkpt>
      <trkpt lat="44.363501071929932" lon="11.199531638994813">
        <ele>260</ele>
        <time>2004-12-08T11:01:54Z</time>
      </trkpt>
      <trkpt lat="44.363608360290527" lon="11.199724674224854">
        <ele>259</ele>
        <time>2004-12-08T11:02:01Z</time>
      </trkpt>
      <trkpt lat="44.363608360290527" lon="11.200003623962402">
        <ele>256</ele>
        <time>2004-12-08T11:02:05Z</time>
      </trkpt>
      <trkpt lat="44.363629817962646" lon="11.200346862897277">
        <ele>253</ele>
        <time>2004-12-08T11:02:10Z</time>
      </trkpt>
      <trkpt lat="44.363694190979004" lon="11.200733184814453">
        <ele>252</ele>
        <time>2004-12-08T11:02:19Z</time>
      </trkpt>
      <trkpt lat="44.363715564832091" lon="11.201054966077209">
        <ele>253</ele>
        <time>2004-12-08T11:02:29Z</time>
      </trkpt>
      <trkpt lat="44.363694190979004" lon="11.201162338256836">
        <ele>252</ele>
        <time>2004-12-08T11:02:31Z</time>
      </trkpt>
      <trkpt lat="44.363715564832091" lon="11.201376914978027">
        <ele>246</ele>
        <time>2004-12-08T11:02:35Z</time>
      </trkpt>
      <trkpt lat="44.3638014793396" lon="11.201655864715576">
        <ele>242</ele>
        <time>2004-12-08T11:02:40Z</time>
      </trkpt>
      <trkpt lat="44.363887310028076" lon="11.201870441436768">
        <ele>237</ele>
        <time>2004-12-08T11:02:43Z</time>
      </trkpt>
      <trkpt lat="44.363994598388672" lon="11.202106475830078">
        <ele>234</ele>
        <time>2004-12-08T11:02:46Z</time>
      </trkpt>
      <trkpt lat="44.364101886749268" lon="11.202342510223389">
        <ele>231</ele>
        <time>2004-12-08T11:02:49Z</time>
      </trkpt>
      <trkpt lat="44.364123260602355" lon="11.20255708694458">
        <ele>227</ele>
        <time>2004-12-08T11:02:52Z</time>
      </trkpt>
      <trkpt lat="44.364101886749268" lon="11.202728664502501">
        <ele>226</ele>
        <time>2004-12-08T11:02:54Z</time>
      </trkpt>
      <trkpt lat="44.364123260602355" lon="11.203029239550233">
        <ele>222</ele>
        <time>2004-12-08T11:02:57Z</time>
      </trkpt>
      <trkpt lat="44.364209175109863" lon="11.203608512878418">
        <ele>218</ele>
        <time>2004-12-08T11:03:03Z</time>
      </trkpt>
      <trkpt lat="44.364230632781982" lon="11.203823089599609">
        <ele>215</ele>
        <time>2004-12-08T11:03:05Z</time>
      </trkpt>
      <trkpt lat="44.364273464307189" lon="11.204037666320801">
        <ele>212</ele>
        <time>2004-12-08T11:03:07Z</time>
      </trkpt>
      <trkpt lat="44.364316463470459" lon="11.204187870025635">
        <ele>210</ele>
        <time>2004-12-08T11:03:09Z</time>
      </trkpt>
      <trkpt lat="44.364380836486816" lon="11.204338073730469">
        <ele>206</ele>
        <time>2004-12-08T11:03:11Z</time>
      </trkpt>
      <trkpt lat="44.364488124847412" lon="11.204638481140137">
        <ele>204</ele>
        <time>2004-12-08T11:03:14Z</time>
      </trkpt>
      <trkpt lat="44.364638328552246" lon="11.205089092254639">
        <ele>200</ele>
        <time>2004-12-08T11:03:18Z</time>
      </trkpt>
      <trkpt lat="44.364724159240723" lon="11.20530366897583">
        <ele>199</ele>
        <time>2004-12-08T11:03:20Z</time>
      </trkpt>
      <trkpt lat="44.364874362945557" lon="11.206119060516357">
        <ele>195</ele>
        <time>2004-12-08T11:03:27Z</time>
      </trkpt>
      <trkpt lat="44.364917278289795" lon="11.206333637237549">
        <ele>193</ele>
        <time>2004-12-08T11:03:29Z</time>
      </trkpt>
      <trkpt lat="44.364981735125184" lon="11.20680570602417">
        <ele>186</ele>
        <time>2004-12-08T11:03:33Z</time>
      </trkpt>
      <trkpt lat="44.365024566650391" lon="11.206998825073242">
        <ele>182</ele>
        <time>2004-12-08T11:03:35Z</time>
      </trkpt>
      <trkpt lat="44.365067481994629" lon="11.207234859466553">
        <ele>178</ele>
        <time>2004-12-08T11:03:37Z</time>
      </trkpt>
      <trkpt lat="44.365110397338867" lon="11.207427978515625">
        <ele>176</ele>
        <time>2004-12-08T11:03:39Z</time>
      </trkpt>
      <trkpt lat="44.365131938830018" lon="11.207642639055848">
        <ele>172</ele>
        <time>2004-12-08T11:03:41Z</time>
      </trkpt>
      <trkpt lat="44.365153312683105" lon="11.20779275894165">
        <ele>169</ele>
        <time>2004-12-08T11:03:43Z</time>
      </trkpt>
      <trkpt lat="44.365174770355225" lon="11.207921504974365">
        <ele>168</ele>
        <time>2004-12-08T11:03:45Z</time>
      </trkpt>
      <trkpt lat="44.365303516387939" lon="11.208178997039795">
        <ele>164</ele>
        <time>2004-12-08T11:03:50Z</time>
      </trkpt>
      <trkpt lat="44.365324974060059" lon="11.208221912384033">
        <ele>163</ele>
        <time>2004-12-08T11:03:51Z</time>
      </trkpt>
      <trkpt lat="44.365432262420654" lon="11.208457862958312">
        <ele>157</ele>
        <time>2004-12-08T11:03:55Z</time>
      </trkpt>
      <trkpt lat="44.365453720092773" lon="11.208715438842773">
        <ele>153</ele>
        <time>2004-12-08T11:03:58Z</time>
      </trkpt>
      <trkpt lat="44.365453720092773" lon="11.20880126953125">
        <ele>152</ele>
        <time>2004-12-08T11:03:59Z</time>
      </trkpt>
      <trkpt lat="44.365367889404297" lon="11.20905876159668">
        <ele>148</ele>
        <time>2004-12-08T11:04:03Z</time>
      </trkpt>
      <trkpt lat="44.365217685699463" lon="11.208994388580322">
        <ele>147</ele>
        <time>2004-12-08T11:04:05Z</time>
      </trkpt>
      <trkpt lat="44.36504602432251" lon="11.208887100219727">
        <ele>144</ele>
        <time>2004-12-08T11:04:07Z</time>
      </trkpt>
      <trkpt lat="44.364767074584961" lon="11.208629608154297">
        <ele>138</ele>
        <time>2004-12-08T11:04:10Z</time>
      </trkpt>
      <trkpt lat="44.364638328552246" lon="11.208479404449463">
        <ele>136</ele>
        <time>2004-12-08T11:04:12Z</time>
      </trkpt>
      <trkpt lat="44.364509582519531" lon="11.208372116088867">
        <ele>132</ele>
        <time>2004-12-08T11:04:14Z</time>
      </trkpt>
      <trkpt lat="44.364466667175293" lon="11.208329200744629">
        <ele>130</ele>
        <time>2004-12-08T11:04:15Z</time>
      </trkpt>
      <trkpt lat="44.364445209503174" lon="11.208500862121582">
        <ele>129</ele>
        <time>2004-12-08T11:04:20Z</time>
      </trkpt>
      <trkpt lat="44.36453104019165" lon="11.208736896514893">
        <ele>127</ele>
        <time>2004-12-08T11:04:23Z</time>
      </trkpt>
      <trkpt lat="44.364616870880127" lon="11.209037303924561">
        <ele>125</ele>
        <time>2004-12-08T11:04:26Z</time>
      </trkpt>
      <trkpt lat="44.364702701568604" lon="11.209273338317871">
        <ele>120</ele>
        <time>2004-12-08T11:04:28Z</time>
      </trkpt>
      <trkpt lat="44.364767074584961" lon="11.209466541185975">
        <ele>117</ele>
        <time>2004-12-08T11:04:30Z</time>
      </trkpt>
      <trkpt lat="44.364895820617676" lon="11.209831237792969">
        <ele>114</ele>
        <time>2004-12-08T11:04:36Z</time>
      </trkpt>
      <trkpt lat="44.364917278289795" lon="11.210024440661073">
        <ele>114</ele>
        <time>1989-12-31T00:00:00Z</time>
      </trkpt>
      <trkpt lat="44.365024566650391" lon="11.210281765088439">
        <ele>111</ele>
        <time>2004-12-08T11:05:25Z</time>
      </trkpt>
      <trkpt lat="44.36504602432251" lon="11.210432136431336">
        <ele>111</ele>
        <time>2004-12-08T11:05:30Z</time>
      </trkpt>
      <trkpt lat="44.36523905955255" lon="11.211097240447998">
        <ele>114</ele>
        <time>2004-12-08T11:05:44Z</time>
      </trkpt>
      <trkpt lat="44.365518093109131" lon="11.211934089660645">
        <ele>117</ele>
        <time>2004-12-08T11:06:00Z</time>
      </trkpt>
      <trkpt lat="44.365775585174561" lon="11.212770938873291">
        <ele>120</ele>
        <time>2004-12-08T11:06:15Z</time>
      </trkpt>
      <trkpt lat="44.366140365600586" lon="11.213457584381104">
        <ele>122</ele>
        <time>2004-12-08T11:06:27Z</time>
      </trkpt>
      <trkpt lat="44.366397941485047" lon="11.213715076446533">
        <ele>123</ele>
        <time>2004-12-08T11:06:33Z</time>
      </trkpt>
      <trkpt lat="44.367341995239258" lon="11.213972568511963">
        <ele>121</ele>
        <time>2004-12-08T11:06:48Z</time>
      </trkpt>
      <trkpt lat="44.367492198944092" lon="11.213994026184082">
        <ele>120</ele>
        <time>2004-12-08T11:06:50Z</time>
      </trkpt>
      <trkpt lat="44.368393421173096" lon="11.214659214019775">
        <ele>120</ele>
        <time>2004-12-08T11:07:05Z</time>
      </trkpt>
      <trkpt lat="44.369187438860536" lon="11.215775012969971">
        <ele>123</ele>
        <time>2004-12-08T11:07:24Z</time>
      </trkpt>
      <trkpt lat="44.37002420425415" lon="11.216933727264404">
        <ele>125</ele>
        <time>2004-12-08T11:07:45Z</time>
      </trkpt>
      <trkpt lat="44.370303237810731" lon="11.217341423034668">
        <ele>126</ele>
        <time>2004-12-08T11:07:52Z</time>
      </trkpt>
      <trkpt lat="44.370410358533263" lon="11.217749118804932">
        <ele>126</ele>
        <time>2004-12-08T11:07:57Z</time>
      </trkpt>
      <trkpt lat="44.370603561401367" lon="11.219229698181152">
        <ele>122</ele>
        <time>2004-12-08T11:08:11Z</time>
      </trkpt>
      <trkpt lat="44.371075630187988" lon="11.220581531524658">
        <ele>119</ele>
        <time>2004-12-08T11:08:23Z</time>
      </trkpt>
      <trkpt lat="44.371976936236024" lon="11.221954822540283">
        <ele>119</ele>
        <time>2004-12-08T11:08:40Z</time>
      </trkpt>
      <trkpt lat="44.373006820678711" lon="11.223113536834717">
        <ele>120</ele>
        <time>2004-12-08T11:08:57Z</time>
      </trkpt>
      <trkpt lat="44.373800838366151" lon="11.224014759063721">
        <ele>121</ele>
        <time>2004-12-08T11:09:10Z</time>
      </trkpt>
      <trkpt lat="44.374616062268615" lon="11.225109100341797">
        <ele>121</ele>
        <time>2004-12-08T11:09:27Z</time>
      </trkpt>
      <trkpt lat="44.375581741333008" lon="11.226139068603516">
        <ele>121</ele>
        <time>2004-12-08T11:09:46Z</time>
      </trkpt>
      <trkpt lat="44.376397132873535" lon="11.227576732635498">
        <ele>123</ele>
        <time>2004-12-08T11:10:06Z</time>
      </trkpt>
      <trkpt lat="44.377105236053467" lon="11.229314804077148">
        <ele>122</ele>
        <time>2004-12-08T11:10:27Z</time>
      </trkpt>
      <trkpt lat="44.377920627593994" lon="11.230409061536193">
        <ele>122</ele>
        <time>2004-12-08T11:10:44Z</time>
      </trkpt>
      <trkpt lat="44.379186630249023" lon="11.231567859649658">
        <ele>123</ele>
        <time>2004-12-08T11:11:07Z</time>
      </trkpt>
      <trkpt lat="44.379937564954162" lon="11.232190132141113">
        <ele>124</ele>
        <time>2004-12-08T11:11:21Z</time>
      </trkpt>
      <trkpt lat="44.380903160199523" lon="11.233241641893983">
        <ele>125</ele>
        <time>2004-12-08T11:11:42Z</time>
      </trkpt>
      <trkpt lat="44.381847381591797" lon="11.234228610992432">
        <ele>124</ele>
        <time>2004-12-08T11:12:00Z</time>
      </trkpt>
      <trkpt lat="44.38326358795166" lon="11.235666275024414">
        <ele>124</ele>
        <time>2004-12-08T11:12:26Z</time>
      </trkpt>
      <trkpt lat="44.384379386901855" lon="11.236352920532227">
        <ele>125</ele>
        <time>2004-12-08T11:12:46Z</time>
      </trkpt>
      <trkpt lat="44.385538101196289" lon="11.237339973449707">
        <ele>125</ele>
        <time>2004-12-08T11:13:07Z</time>
      </trkpt>
      <trkpt lat="44.386417865753174" lon="11.238670265302062">
        <ele>123</ele>
        <time>2004-12-08T11:13:26Z</time>
      </trkpt>
      <trkpt lat="44.387276172637939" lon="11.240365505218506">
        <ele>123</ele>
        <time>2004-12-08T11:13:47Z</time>
      </trkpt>
      <trkpt lat="44.387490665540099" lon="11.241695880889893">
        <ele>125</ele>
        <time>2004-12-08T11:14:02Z</time>
      </trkpt>
      <trkpt lat="44.387555122375488" lon="11.242468440905213">
        <ele>127</ele>
        <time>2004-12-08T11:14:13Z</time>
      </trkpt>
      <trkpt lat="44.387662410736084" lon="11.24276876449585">
        <ele>127</ele>
        <time>2004-12-08T11:14:18Z</time>
      </trkpt>
      <trkpt lat="44.388477802276611" lon="11.243798732757568">
        <ele>126</ele>
        <time>2004-12-08T11:14:36Z</time>
      </trkpt>
      <trkpt lat="44.389078617095947" lon="11.2445068359375">
        <ele>127</ele>
        <time>2004-12-08T11:14:48Z</time>
      </trkpt>
      <trkpt lat="44.389443397521973" lon="11.245021820068359">
        <ele>125</ele>
        <time>2004-12-08T11:14:55Z</time>
      </trkpt>
      <trkpt lat="44.390237331390381" lon="11.245450973510742">
        <ele>123</ele>
        <time>2004-12-08T11:15:06Z</time>
      </trkpt>
      <trkpt lat="44.390559196472168" lon="11.245622634887695">
        <ele>123</ele>
        <time>2004-12-08T11:15:11Z</time>
      </trkpt>
      <trkpt lat="44.390666484832764" lon="11.245901584625244">
        <ele>123</ele>
        <time>2004-12-08T11:15:15Z</time>
      </trkpt>
      <trkpt lat="44.39100980758667" lon="11.24624490737915">
        <ele>122</ele>
        <time>2004-12-08T11:15:23Z</time>
      </trkpt>
      <trkpt lat="44.391074180603027" lon="11.246201992034912">
        <ele>122</ele>
        <time>2004-12-08T11:15:24Z</time>
      </trkpt>
      <trkpt lat="44.39128884114325" lon="11.246073162183166">
        <ele>122</ele>
        <time>2004-12-08T11:15:28Z</time>
      </trkpt>
      <trkpt lat="44.391610622406006" lon="11.246073162183166">
        <ele>123</ele>
        <time>2004-12-08T11:15:33Z</time>
      </trkpt>
      <trkpt lat="44.392619132995605" lon="11.24650239944458">
        <ele>124</ele>
        <time>2004-12-08T11:15:50Z</time>
      </trkpt>
      <trkpt lat="44.39274787902832" lon="11.246523940935731">
        <ele>124</ele>
        <time>2004-12-08T11:15:52Z</time>
      </trkpt>
      <trkpt lat="44.392876625061035" lon="11.246523940935731">
        <ele>124</ele>
        <time>2004-12-08T11:15:54Z</time>
      </trkpt>
      <trkpt lat="44.393692016601563" lon="11.246910095214844">
        <ele>124</ele>
        <time>2004-12-08T11:16:12Z</time>
      </trkpt>
      <trkpt lat="44.393734931945801" lon="11.246910095214844">
        <ele>123</ele>
        <time>2004-12-08T11:16:13Z</time>
      </trkpt>
      <trkpt lat="44.393799304962158" lon="11.246738433837891">
        <ele>123</ele>
        <time>2004-12-08T11:16:18Z</time>
      </trkpt>
      <trkpt lat="44.393906593322754" lon="11.246180534362793">
        <ele>124</ele>
        <time>2004-12-08T11:16:30Z</time>
      </trkpt>
    </trkseg>
  </trk>

  <trk>
    <name>Percorso 002</name>
    <trkseg>
      <trkpt lat="44.366698265075684" lon="11.185455489903688">
        <ele>400</ele>
        <time>1989-12-31T00:00:00Z</time>
      </trkpt>
      <trkpt lat="44.366741180419922" lon="11.185669898986816">
        <ele>400</ele>
        <time>2005-04-03T09:21:28Z</time>
      </trkpt>
      <trkpt lat="44.366762638092041" lon="11.185755729675293">
        <ele>398</ele>
        <time>2005-04-03T09:21:30Z</time>
      </trkpt>
      <trkpt lat="44.366719722747803" lon="11.18582010269165">
        <ele>397</ele>
        <time>2005-04-03T09:21:33Z</time>
      </trkpt>
      <trkpt lat="44.366741180419922" lon="11.185927391052246">
        <ele>393</ele>
        <time>2005-04-03T09:21:38Z</time>
      </trkpt>
      <trkpt lat="44.366848468780518" lon="11.186013221740723">
        <ele>392</ele>
        <time>2005-04-03T09:21:44Z</time>
      </trkpt>
      <trkpt lat="44.366998672485352" lon="11.185991764068604">
        <ele>388</ele>
        <time>2005-04-03T09:21:49Z</time>
      </trkpt>
      <trkpt lat="44.367084503173828" lon="11.185991764068604">
        <ele>385</ele>
        <time>2005-04-03T09:21:52Z</time>
      </trkpt>
      <trkpt lat="44.367127418518066" lon="11.185991764068604">
        <ele>385</ele>
        <time>2005-04-03T09:21:53Z</time>
      </trkpt>
      <trkpt lat="44.367191791534424" lon="11.186013221740723">
        <ele>381</ele>
        <time>2005-04-03T09:21:56Z</time>
      </trkpt>
      <trkpt lat="44.367213165387511" lon="11.186034679412842">
        <ele>381</ele>
        <time>2005-04-03T09:21:57Z</time>
      </trkpt>
      <trkpt lat="44.367084503173828" lon="11.186120510101318">
        <ele>376</ele>
        <time>2005-04-03T09:22:02Z</time>
      </trkpt>
      <trkpt lat="44.366998672485352" lon="11.186141967773438">
        <ele>375</ele>
        <time>2005-04-03T09:22:04Z</time>
      </trkpt>
      <trkpt lat="44.366934299468994" lon="11.186184883117676">
        <ele>374</ele>
        <time>2005-04-03T09:22:10Z</time>
      </trkpt>
      <trkpt lat="44.366977214813232" lon="11.186227798461914">
        <ele>373</ele>
        <time>2005-04-03T09:22:18Z</time>
      </trkpt>
      <trkpt lat="44.367020130157471" lon="11.186399459838867">
        <ele>370</ele>
        <time>2005-04-03T09:22:22Z</time>
      </trkpt>
      <trkpt lat="44.367084503173828" lon="11.186420917510986">
        <ele>366</ele>
        <time>2005-04-03T09:22:27Z</time>
      </trkpt>
      <trkpt lat="44.367191791534424" lon="11.186227798461914">
        <ele>368</ele>
        <time>2005-04-03T09:22:37Z</time>
      </trkpt>
      <trkpt lat="44.367213165387511" lon="11.186313629150391">
        <ele>367</ele>
        <time>2005-04-03T09:22:41Z</time>
      </trkpt>
      <trkpt lat="44.367127418518066" lon="11.186528205871582">
        <ele>364</ele>
        <time>2005-04-03T09:22:47Z</time>
      </trkpt>
      <trkpt lat="44.367127418518066" lon="11.18657112121582">
        <ele>361</ele>
        <time>2005-04-03T09:23:23Z</time>
      </trkpt>
      <trkpt lat="44.367105960845947" lon="11.186721324920654">
        <ele>356</ele>
        <time>2005-04-03T09:23:27Z</time>
      </trkpt>
      <trkpt lat="44.367062961682677" lon="11.186914360150695">
        <ele>352</ele>
        <time>2005-04-03T09:23:31Z</time>
      </trkpt>
      <trkpt lat="44.367062961682677" lon="11.186978816986084">
        <ele>351</ele>
        <time>2005-04-03T09:23:32Z</time>
      </trkpt>
      <trkpt lat="44.366955840960145" lon="11.186935901641846">
        <ele>348</ele>
        <time>2005-04-03T09:23:38Z</time>
      </trkpt>
      <trkpt lat="44.366891384124756" lon="11.186892986297607">
        <ele>344</ele>
        <time>2005-04-03T09:23:41Z</time>
      </trkpt>
      <trkpt lat="44.366827011108398" lon="11.186957359313965">
        <ele>342</ele>
        <time>2005-04-03T09:23:54Z</time>
      </trkpt>
      <trkpt lat="44.36678409576416" lon="11.187021732330322">
        <ele>340</ele>
        <time>2005-04-03T09:24:09Z</time>
      </trkpt>
      <trkpt lat="44.36678409576416" lon="11.187043190002441">
        <ele>340</ele>
        <time>2005-04-03T09:24:14Z</time>
      </trkpt>
      <trkpt lat="44.366827011108398" lon="11.18708610534668">
        <ele>340</ele>
        <time>2005-04-03T09:24:18Z</time>
      </trkpt>
      <trkpt lat="44.366891384124756" lon="11.187171936035156">
        <ele>340</ele>
        <time>2005-04-03T09:24:22Z</time>
      </trkpt>
      <trkpt lat="44.367020130157471" lon="11.18732213973999">
        <ele>337</ele>
        <time>2005-04-03T09:24:31Z</time>
      </trkpt>
      <trkpt lat="44.367020130157471" lon="11.18736513890326">
        <ele>338</ele>
        <time>2005-04-03T09:24:45Z</time>
      </trkpt>
      <trkpt lat="44.367062961682677" lon="11.187343597412109">
        <ele>337</ele>
        <time>2005-04-03T09:24:49Z</time>
      </trkpt>
      <trkpt lat="44.367234706878662" lon="11.187214935198426">
        <ele>335</ele>
        <time>2005-04-03T09:25:03Z</time>
      </trkpt>
      <trkpt lat="44.367384910583496" lon="11.18708610534668">
        <ele>334</ele>
        <time>2005-04-03T09:25:21Z</time>
      </trkpt>
      <trkpt lat="44.367341995239258" lon="11.187021732330322">
        <ele>337</ele>
        <time>2005-04-03T09:26:02Z</time>
      </trkpt>
      <trkpt lat="44.367384910583496" lon="11.186914360150695">
        <ele>339</ele>
        <time>2005-04-03T09:26:13Z</time>
      </trkpt>
      <trkpt lat="44.367427825927734" lon="11.186892986297607">
        <ele>336</ele>
        <time>2005-04-03T09:26:17Z</time>
      </trkpt>
      <trkpt lat="44.367470741271973" lon="11.186892986297607">
        <ele>334</ele>
        <time>2005-04-03T09:26:21Z</time>
      </trkpt>
      <trkpt lat="44.367513740435243" lon="11.186914360150695">
        <ele>333</ele>
        <time>2005-04-03T09:26:31Z</time>
      </trkpt>
      <trkpt lat="44.367578029632568" lon="11.187000274658203">
        <ele>329</ele>
        <time>2005-04-03T09:26:44Z</time>
      </trkpt>
      <trkpt lat="44.367599487304688" lon="11.187021732330322">
        <ele>328</ele>
        <time>2005-04-03T09:26:47Z</time>
      </trkpt>
      <trkpt lat="44.367663860321045" lon="11.187064563855529">
        <ele>326</ele>
        <time>2005-04-03T09:26:52Z</time>
      </trkpt>
      <trkpt lat="44.367685317993164" lon="11.18708610534668">
        <ele>324</ele>
        <time>2005-04-03T09:26:56Z</time>
      </trkpt>
      <trkpt lat="44.367728233337402" lon="11.187107563018799">
        <ele>320</ele>
        <time>2005-04-03T09:27:07Z</time>
      </trkpt>
      <trkpt lat="44.367728233337402" lon="11.187129020690918">
        <ele>319</ele>
        <time>2005-04-03T09:27:16Z</time>
      </trkpt>
      <trkpt lat="44.36779260635376" lon="11.187129020690918">
        <ele>320</ele>
        <time>2005-04-03T09:27:27Z</time>
      </trkpt>
      <trkpt lat="44.367878437042236" lon="11.187043190002441">
        <ele>316</ele>
        <time>2005-04-03T09:27:33Z</time>
      </trkpt>
      <trkpt lat="44.367899894714355" lon="11.187000274658203">
        <ele>315</ele>
        <time>2005-04-03T09:27:35Z</time>
      </trkpt>
      <trkpt lat="44.368007183074951" lon="11.186892986297607">
        <ele>313</ele>
        <time>2005-04-03T09:27:41Z</time>
      </trkpt>
      <trkpt lat="44.36807163991034" lon="11.186785697937012">
        <ele>309</ele>
        <time>2005-04-03T09:27:45Z</time>
      </trkpt>
      <trkpt lat="44.36807163991034" lon="11.186764240264893">
        <ele>309</ele>
        <time>2005-04-03T09:27:46Z</time>
      </trkpt>
      <trkpt lat="44.368178760632873" lon="11.186549663543701">
        <ele>305</ele>
        <time>2005-04-03T09:27:57Z</time>
      </trkpt>
      <trkpt lat="44.368307590484619" lon="11.186313629150391">
        <ele>302</ele>
        <time>2005-04-03T09:28:13Z</time>
      </trkpt>
      <trkpt lat="44.368328964337707" lon="11.186184883117676">
        <ele>299</ele>
        <time>2005-04-03T09:28:20Z</time>
      </trkpt>
      <trkpt lat="44.368350505828857" lon="11.186163425445557">
        <ele>299</ele>
        <time>2005-04-03T09:28:29Z</time>
      </trkpt>
      <trkpt lat="44.368393421173096" lon="11.186313629150391">
        <ele>298</ele>
        <time>2005-04-03T09:28:44Z</time>
      </trkpt>
      <trkpt lat="44.3682861328125" lon="11.186378002166748">
        <ele>297</ele>
        <time>2005-04-03T09:28:49Z</time>
      </trkpt>
      <trkpt lat="44.3682861328125" lon="11.186485290527344">
        <ele>298</ele>
        <time>2005-04-03T09:28:56Z</time>
      </trkpt>
      <trkpt lat="44.368307590484619" lon="11.186699867248535">
        <ele>295</ele>
        <time>2005-04-03T09:29:08Z</time>
      </trkpt>
      <trkpt lat="44.368350505828857" lon="11.187000274658203">
        <ele>292</ele>
        <time>2005-04-03T09:29:19Z</time>
      </trkpt>
      <trkpt lat="44.3682861328125" lon="11.187214935198426">
        <ele>290</ele>
        <time>2005-04-03T09:29:33Z</time>
      </trkpt>
      <trkpt lat="44.3682861328125" lon="11.187236309051514">
        <ele>290</ele>
        <time>2005-04-03T09:29:34Z</time>
      </trkpt>
      <trkpt lat="44.368243217468262" lon="11.187407970428467">
        <ele>286</ele>
        <time>2005-04-03T09:29:43Z</time>
      </trkpt>
      <trkpt lat="44.368221759796143" lon="11.187515258789063">
        <ele>282</ele>
        <time>2005-04-03T09:29:51Z</time>
      </trkpt>
      <trkpt lat="44.368221759796143" lon="11.187536716461182">
        <ele>281</ele>
        <time>2005-04-03T09:29:53Z</time>
      </trkpt>
      <trkpt lat="44.368200302124023" lon="11.187772834673524">
        <ele>279</ele>
        <time>2005-04-03T09:30:09Z</time>
      </trkpt>
      <trkpt lat="44.368050098419189" lon="11.18803015910089">
        <ele>276</ele>
        <time>2005-04-03T09:30:18Z</time>
      </trkpt>
      <trkpt lat="44.367878437042236" lon="11.188158988952637">
        <ele>277</ele>
        <time>2005-04-03T09:30:31Z</time>
      </trkpt>
      <trkpt lat="44.367663860321045" lon="11.188309192657471">
        <ele>275</ele>
        <time>2005-04-03T09:30:48Z</time>
      </trkpt>
      <trkpt lat="44.367513740435243" lon="11.188330734148622">
        <ele>271</ele>
        <time>2005-04-03T09:30:53Z</time>
      </trkpt>
      <trkpt lat="44.367470741271973" lon="11.188352108001709">
        <ele>269</ele>
        <time>2005-04-03T09:30:55Z</time>
      </trkpt>
      <trkpt lat="44.367439309135079" lon="11.188350766897202">
        <ele>269</ele>
        <time>1989-12-31T00:00:00Z</time>
      </trkpt>
      <trkpt lat="44.367400165647268" lon="11.188355041667819">
        <ele>269</ele>
        <time>1989-12-31T00:00:00Z</time>
      </trkpt>
    </trkseg>
  </trk>

</gpx>
